GFSCGP_500_temp_057.txt.gz
Temp
-13 -12 -12 -12 -13 -12 -12 -12 -11 -11 -11 -14 -15 -12 -9 -10 -10 -12 -12 -12 -12 -11 -12 -11 -11 -10 -10 -9 -9 -9 -9 -10 -10 -9 -10 -10 -10 -10 -10 -10 -10 -10 -10 -11
-13 -12 -13 -13 -12 -12 -12 -12 -12 -11 -11 -15 -16 -15 -10 -10 -10 -10 -11 -12 -11 -12 -11 -11 -11 -10 -10 -9 -8 -9 -9 -10 -9 -9 -10 -10 -10 -9 -10 -10 -10 -10 -10 -11
-13 -14 -15 -15 -14 -13 -12 -12 -12 -12 -12 -15 -12 -15 -11 -11 -11 -10 -10 -11 -11 -11 -12 -12 -11 -11 -11 -10 -9 -9 -10 -10 -9 -9 -9 -9 -9 -9 -9 -10 -10 -10 -10 -11
-15 -17 -18 -18 -18 -18 -16 -15 -15 -13 -14 -16 -12 -16 -11 -11 -11 -11 -10 -11 -11 -11 -11 -10 -11 -11 -10 -10 -10 -9 -9 -9 -9 -9 -9 -9 -9 -9 -9 -10 -10 -10 -10 -11
-19 -21 -22 -22 -22 -22 -22 -22 -21 -18 -17 -15 -15 -17 -15 -11 -11 -11 -11 -11 -11 -10 -10 -10 -10 -10 -10 -10 -9 -9 -9 -9 -9 -9 -9 -9 -9 -9 -9 -10 -10 -10 -10 -11
-22 -22 -22 -21 -21 -21 -21 -22 -22 -22 -21 -21 -16 -17 -16 -14 -13 -14 -13 -11 -11 -10 -10 -10 -10 -10 -10 -9 -9 -9 -9 -9 -9 -9 -9 -9 -9 -9 -10 -10 -10 -10 -11 -11
-22 -22 -22 -21 -21 -22 -22 -23 -22 -21 -21 -20 -19 -18 -16 -15 -15 -15 -15 -13 -11 -10 -10 -9 -9 -9 -9 -9 -9 -8 -9 -9 -9 -9 -9 -9 -9 -9 -9 -10 -10 -10 -11 -11
-22 -22 -21 -21 -21 -22 -22 -22 -21 -21 -20 -20 -19 -18 -17 -15 -15 -15 -14 -12 -11 -10 -10 -9 -9 -8 -8 -8 -8 -8 -8 -9 -9 -9 -9 -9 -9 -9 -9 -10 -10 -11 -11 -11
-22 -22 -22 -22 -21 -22 -23 -22 -21 -21 -19 -19 -18 -17 -18 -16 -16 -14 -14 -12 -11 -10 -10 -9 -8 -8 -8 -9 -8 -9 -8 -8 -9 -9 -9 -9 -9 -9 -10 -10 -10 -11 -11 -10
-23 -22 -22 -22 -22 -21 -22 -22 -21 -21 -21 -20 -18 -17 -17 -17 -16 -16 -14 -12 -11 -10 -10 -9 -8 -8 -9 -9 -8 -8 -9 -9 -9 -9 -9 -9 -9 -10 -10 -10 -11 -11 -10 -10
-23 -23 -22 -22 -22 -21 -22 -23 -22 -22 -21 -20 -19 -17 -16 -16 -16 -15 -14 -12 -11 -10 -10 -9 -9 -9 -9 -9 -9 -9 -9 -9 -9 -9 -9 -9 -9 -10 -10 -10 -10 -10 -10 -10
-23 -23 -22 -22 -22 -21 -21 -21 -21 -21 -20 -20 -18 -18 -17 -16 -16 -16 -14 -12 -11 -10 -10 -10 -10 -9 -9 -9 -9 -9 -9 -9 -9 -9 -9 -9 -10 -10 -10 -10 -10 -10 -10 -10
-23 -23 -23 -22 -21 -21 -21 -21 -22 -22 -21 -19 -19 -17 -16 -16 -16 -15 -14 -13 -11 -11 -11 -11 -10 -9 -9 -9 -9 -9 -9 -9 -9 -9 -9 -10 -10 -10 -10 -10 -10 -10 -10 -10
-23 -23 -23 -22 -22 -22 -22 -22 -22 -22 -21 -19 -20 -18 -16 -16 -17 -16 -14 -13 -11 -12 -12 -11 -11 -10 -9 -9 -9 -9 -9 -9 -9 -9 -9 -10 -10 -10 -10 -10 -10 -10 -10 -10
-22 -23 -22 -22 -23 -23 -23 -23 -22 -21 -21 -20 -20 -19 -17 -17 -18 -18 -14 -12 -12 -12 -12 -11 -12 -11 -10 -10 -10 -10 -9 -9 -9 -9 -10 -10 -10 -10 -10 -10 -10 -10 -10 -11
-22 -22 -22 -22 -22 -23 -23 -23 -23 -21 -21 -19 -20 -20 -19 -18 -17 -16 -14 -13 -12 -12 -12 -11 -11 -11 -10 -10 -10 -10 -10 -10 -10 -10 -10 -10 -10 -10 -10 -10 -10 -10 -10 -10
-22 -22 -22 -22 -23 -22 -22 -22 -22 -22 -22 -21 -19 -20 -21 -20 -19 -18 -14 -13 -13 -12 -12 -11 -12 -11 -11 -11 -10 -10 -10 -10 -10 -10 -10 -10 -10 -10 -10 -10 -10 -10 -10 -11
-21 -21 -22 -21 -22 -21 -22 -21 -21 -21 -21 -20 -20 -20 -19 -20 -19 -16 -14 -13 -13 -12 -12 -11 -11 -11 -11 -11 -11 -10 -10 -10 -10 -10 -10 -10 -10 -10 -10 -10 -10 -10 -11 -11
-21 -21 -21 -21 -21 -21 -21 -21 -21 -21 -21 -21 -21 -20 -19 -18 -17 -15 -14 -13 -13 -12 -12 -12 -12 -11 -12 -11 -11 -11 -11 -11 -10 -10 -10 -10 -10 -10 -10 -10 -10 -11 -11 -11
-21 -21 -21 -21 -21 -21 -21 -21 -21 -21 -21 -21 -20 -20 -20 -18 -16 -18 -15 -14 -14 -12 -12 -12 -12 -11 -12 -11 -11 -11 -11 -11 -10 -10 -10 -10 -10 -10 -10 -10 -10 -10 -10 -11
-21 -21 -21 -21 -21 -21 -20 -21 -21 -21 -20 -20 -21 -20 -18 -17 -16 -15 -14 -13 -12 -12 -12 -12 -12 -12 -11 -11 -11 -11 -11 -11 -10 -10 -10 -10 -10 -10 -10 -10 -10 -10 -10 -11
-21 -21 -21 -21 -21 -21 -21 -20 -21 -21 -21 -20 -20 -19 -18 -17 -16 -15 -14 -13 -12 -12 -12 -12 -12 -12 -12 -12 -12 -11 -11 -11 -11 -10 -10 -10 -10 -10 -10 -10 -10 -10 -11 -11
-21 -21 -21 -21 -21 -21 -21 -20 -21 -20 -19 -20 -19 -19 -17 -16 -16 -14 -14 -13 -13 -12 -11 -12 -12 -12 -12 -12 -12 -11 -11 -11 -11 -10 -10 -10 -10 -10 -10 -10 -10 -10 -11 -11
-21 -21 -21 -21 -21 -21 -21 -20 -21 -20 -19 -19 -18 -18 -16 -16 -15 -14 -14 -13 -13 -13 -13 -13 -13 -12 -12 -12 -12 -11 -11 -11 -11 -10 -10 -10 -11 -10 -11 -11 -11 -11 -11 -11
-21 -21 -21 -21 -21 -21 -21 -20 -20 -20 -18 -18 -17 -17 -16 -15 -14 -14 -13 -13 -13 -13 -13 -13 -13 -12 -12 -12 -12 -12 -12 -11 -11 -11 -11 -11 -11 -11 -11 -11 -11 -11 -11 -11
-21 -21 -21 -21 -21 -21 -20 -19 -19 -19 -18 -18 -18 -17 -16 -14 -14 -13 -13 -12 -12 -12 -12 -13 -13 -13 -13 -12 -12 -12 -12 -11 -11 -11 -11 -11 -11 -11 -11 -11 -11 -11 -11 -12

GFSCGP_500_temp_060.txt.gz
Temp
-13 -13 -13 -13 -13 -12 -12 -12 -12 -11 -11 -13 -15 -13 -10 -10 -11 -10 -10 -10 -11 -11 -12 -11 -11 -10 -10 -10 -9 -10 -10 -10 -10 -9 -9 -9 -9 -9 -10 -10 -10 -9 -10 -10
-13 -13 -14 -13 -13 -13 -13 -13 -12 -12 -12 -13 -13 -12 -11 -11 -10 -10 -11 -11 -11 -11 -12 -12 -12 -11 -11 -9 -9 -9 -10 -10 -10 -9 -9 -9 -9 -9 -10 -10 -9 -9 -10 -9
-14 -14 -14 -14 -14 -13 -13 -13 -13 -13 -13 -15 -12 -12 -12 -11 -11 -11 -12 -10 -11 -11 -11 -12 -11 -12 -11 -10 -9 -8 -10 -10 -10 -9 -9 -9 -9 -10 -10 -10 -10 -9 -9 -10
-14 -15 -15 -15 -14 -15 -15 -16 -16 -15 -15 -14 -14 -13 -13 -11 -11 -11 -11 -11 -9 -10 -11 -11 -11 -11 -11 -10 -9 -9 -9 -9 -9 -9 -9 -9 -9 -10 -10 -9 -9 -10 -9 -10
-17 -18 -19 -18 -19 -20 -20 -20 -21 -20 -20 -19 -16 -15 -11 -12 -11 -11 -11 -11 -12 -10 -11 -11 -10 -10 -10 -10 -10 -9 -9 -9 -9 -9 -9 -9 -9 -10 -9 -9 -9 -9 -9 -10
-20 -21 -21 -20 -21 -21 -21 -21 -21 -21 -21 -21 -14 -19 -12 -12 -12 -12 -12 -12 -12 -12 -10 -11 -11 -10 -9 -10 -10 -10 -10 -9 -9 -9 -9 -9 -9 -10 -9 -9 -9 -9 -9 -10
-20 -21 -21 -20 -20 -21 -20 -21 -21 -22 -21 -21 -18 -21 -14 -14 -13 -13 -15 -15 -14 -13 -11 -11 -11 -10 -9 -9 -9 -9 -8 -9 -9 -9 -9 -9 -9 -9 -9 -9 -9 -9 -9 -10
-21 -20 -21 -21 -21 -21 -20 -21 -21 -21 -21 -20 -20 -20 -18 -15 -15 -15 -14 -14 -14 -14 -13 -11 -11 -9 -9 -9 -8 -8 -8 -8 -9 -9 -9 -9 -9 -9 -9 -9 -9 -9 -9 -10
-22 -22 -22 -22 -22 -21 -21 -21 -22 -21 -20 -21 -19 -19 -19 -19 -16 -15 -14 -14 -14 -12 -14 -11 -10 -10 -9 -9 -8 -8 -9 -8 -8 -9 -9 -8 -9 -9 -9 -9 -9 -8 -10 -11
-23 -22 -23 -22 -22 -21 -21 -21 -21 -20 -20 -20 -20 -19 -18 -19 -16 -15 -15 -15 -14 -13 -12 -11 -10 -10 -9 -9 -9 -9 -9 -8 -9 -9 -9 -8 -9 -9 -9 -9 -8 -9 -10 -10
-23 -23 -22 -23 -22 -21 -21 -22 -21 -21 -21 -21 -20 -18 -18 -18 -17 -16 -15 -15 -14 -14 -12 -11 -10 -10 -9 -9 -9 -8 -8 -9 -9 -8 -8 -9 -9 -9 -9 -8 -9 -10 -10 -10
-23 -23 -22 -22 -22 -21 -21 -21 -21 -21 -21 -20 -19 -18 -17 -17 -16 -15 -16 -15 -15 -14 -12 -11 -10 -10 -10 -9 -9 -9 -9 -9 -8 -8 -9 -9 -9 -9 -9 -9 -10 -10 -10 -10
-22 -22 -22 -22 -22 -21 -22 -21 -21 -21 -20 -19 -19 -18 -16 -16 -15 -16 -16 -15 -16 -13 -12 -11 -10 -10 -10 -10 -10 -9 -9 -9 -9 -9 -9 -9 -9 -9 -9 -10 -10 -10 -10 -10
-22 -22 -22 -21 -22 -22 -21 -22 -21 -21 -21 -20 -20 -18 -16 -16 -16 -15 -15 -15 -15 -13 -12 -11 -12 -10 -10 -10 -10 -10 -9 -9 -9 -9 -9 -9 -9 -9 -9 -10 -10 -10 -10 -10
-21 -21 -21 -21 -21 -22 -22 -21 -22 -21 -19 -21 -21 -20 -20 -18 -17 -15 -16 -17 -15 -12 -13 -12 -12 -11 -11 -10 -10 -10 -10 -9 -9 -9 -9 -9 -9 -9 -10 -10 -10 -10 -10 -10
-21 -21 -21 -21 -21 -22 -22 -20 -22 -21 -20 -20 -20 -20 -21 -19 -17 -18 -18 -18 -15 -14 -13 -12 -12 -12 -12 -11 -11 -10 -10 -10 -9 -9 -9 -9 -9 -10 -10 -10 -10 -10 -10 -10
-21 -21 -21 -21 -21 -21 -21 -22 -20 -19 -19 -21 -21 -21 -21 -20 -19 -19 -19 -18 -18 -15 -13 -12 -12 -13 -12 -11 -11 -11 -10 -10 -9 -9 -9 -9 -10 -10 -10 -10 -10 -10 -10 -10
-21 -21 -21 -20 -21 -21 -21 -21 -21 -20 -19 -19 -19 -19 -21 -21 -20 -19 -18 -17 -17 -16 -13 -12 -12 -13 -12 -12 -11 -11 -10 -10 -10 -10 -10 -10 -10 -10 -10 -10 -10 -10 -10 -10
-20 -21 -21 -21 -21 -21 -21 -20 -21 -20 -19 -20 -20 -19 -20 -20 -20 -18 -19 -17 -16 -15 -13 -12 -12 -12 -12 -12 -11 -11 -11 -11 -10 -10 -10 -10 -10 -10 -10 -10 -10 -10 -10 -10
-20 -21 -21 -21 -21 -21 -20 -20 -20 -20 -20 -20 -20 -19 -19 -19 -18 -19 -18 -18 -16 -14 -13 -12 -12 -12 -12 -12 -11 -11 -11 -11 -11 -10 -10 -10 -10 -10 -10 -10 -10 -10 -10 -11
-20 -20 -21 -21 -21 -20 -20 -20 -20 -20 -20 -20 -19 -19 -19 -18 -18 -18 -17 -17 -16 -13 -12 -12 -12 -12 -12 -12 -12 -11 -11 -11 -11 -11 -11 -10 -10 -10 -10 -10 -10 -10 -11 -11
-21 -21 -21 -21 -21 -21 -20 -20 -20 -20 -20 -20 -20 -19 -19 -18 -18 -17 -17 -16 -15 -13 -13 -12 -12 -13 -13 -12 -12 -11 -11 -11 -11 -11 -11 -11 -11 -10 -10 -10 -11 -11 -11 -11
-20 -21 -20 -21 -20 -21 -21 -21 -20 -20 -20 -20 -20 -20 -19 -18 -17 -16 -16 -16 -14 -14 -13 -13 -13 -13 -12 -13 -12 -12 -11 -11 -11 -11 -11 -11 -11 -11 -11 -11 -11 -11 -11 -11
-21 -21 -21 -20 -21 -20 -21 -21 -21 -21 -20 -20 -20 -20 -18 -18 -16 -16 -15 -15 -14 -14 -13 -13 -13 -13 -13 -13 -12 -12 -12 -11 -11 -11 -11 -11 -11 -11 -11 -11 -11 -11 -11 -11
-21 -21 -20 -20 -20 -20 -21 -21 -20 -20 -20 -20 -19 -18 -18 -17 -16 -16 -15 -14 -14 -13 -14 -13 -13 -13 -13 -12 -12 -12 -12 -12 -12 -11 -11 -11 -11 -11 -11 -11 -11 -11 -11 -11
-21 -20 -20 -20 -20 -21 -21 -20 -19 -19 -19 -18 -18 -18 -18 -16 -15 -15 -14 -13 -13 -12 -12 -12 -13 -13 -13 -13 -12 -12 -12 -12 -12 -11 -11 -11 -11 -11 -11 -11 -11 -11 -11 -11

GFSCGP_500_temp_063.txt.gz
Temp
-13 -13 -13 -13 -13 -13 -13 -13 -12 -11 -12 -13 -12 -11 -9 -10 -10 -10 -11 -10 -10 -10 -11 -12 -11 -11 -11 -11 -10 -10 -9 -9 -9 -10 -10 -10 -9 -9 -9 -9 -9 -10 -10 -10
-14 -14 -14 -14 -13 -13 -13 -13 -12 -12 -13 -14 -13 -12 -10 -10 -10 -10 -10 -10 -10 -10 -10 -11 -12 -12 -11 -11 -11 -10 -10 -9 -9 -10 -9 -9 -9 -8 -9 -9 -9 -10 -10 -10
-14 -14 -14 -14 -14 -14 -14 -14 -13 -13 -14 -14 -13 -13 -11 -11 -11 -11 -10 -10 -10 -10 -10 -10 -11 -11 -12 -11 -10 -10 -10 -10 -9 -9 -9 -10 -8 -8 -9 -9 -9 -10 -10 -10
-15 -15 -15 -15 -14 -15 -13 -15 -15 -14 -15 -14 -16 -13 -12 -11 -11 -11 -11 -11 -10 -10 -10 -11 -10 -11 -11 -11 -11 -10 -10 -10 -9 -9 -10 -9 -8 -9 -9 -9 -9 -10 -10 -10
-16 -15 -16 -16 -16 -18 -15 -18 -17 -17 -18 -15 -15 -15 -11 -11 -11 -11 -11 -11 -11 -11 -11 -11 -11 -11 -11 -11 -10 -9 -10 -10 -9 -9 -9 -9 -8 -9 -9 -9 -9 -10 -10 -9
-19 -19 -20 -19 -19 -21 -19 -21 -20 -20 -21 -19 -16 -19 -14 -13 -12 -12 -11 -12 -12 -12 -12 -11 -11 -12 -12 -11 -10 -9 -9 -9 -9 -9 -9 -9 -9 -9 -9 -9 -9 -10 -10 -9
-19 -19 -20 -20 -20 -21 -21 -20 -20 -21 -20 -20 -20 -22 -17 -13 -13 -12 -12 -12 -14 -13 -13 -13 -12 -11 -11 -11 -9 -9 -9 -9 -9 -9 -8 -9 -9 -9 -9 -9 -9 -10 -10 -9
-19 -19 -20 -20 -21 -21 -21 -21 -21 -21 -20 -19 -20 -20 -18 -17 -17 -14 -12 -13 -14 -15 -14 -13 -11 -11 -12 -11 -11 -10 -9 -8 -8 -8 -8 -8 -9 -9 -9 -9 -9 -10 -10 -9
-19 -19 -21 -21 -22 -22 -21 -21 -21 -21 -20 -20 -20 -19 -19 -19 -19 -19 -16 -15 -16 -16 -14 -14 -13 -12 -12 -11 -10 -9 -9 -8 -8 -8 -8 -8 -9 -9 -9 -9 -9 -9 -9 -10
-20 -20 -21 -22 -23 -22 -22 -21 -21 -21 -21 -21 -19 -20 -20 -19 -19 -19 -16 -16 -15 -15 -14 -14 -14 -13 -11 -10 -10 -10 -9 -9 -8 -8 -8 -8 -8 -8 -9 -9 -9 -9 -9 -10
-20 -21 -21 -22 -23 -22 -22 -21 -21 -21 -21 -20 -20 -20 -20 -19 -19 -19 -18 -15 -15 -15 -14 -14 -13 -13 -12 -10 -10 -10 -9 -9 -8 -8 -8 -8 -8 -8 -9 -9 -9 -9 -10 -10
-20 -20 -21 -21 -22 -22 -21 -21 -21 -21 -21 -21 -21 -20 -20 -19 -18 -18 -17 -15 -15 -15 -14 -14 -14 -13 -12 -10 -10 -10 -9 -9 -9 -8 -8 -9 -8 -9 -9 -9 -9 -10 -10 -10
-20 -21 -20 -21 -22 -21 -22 -22 -21 -21 -21 -21 -21 -21 -20 -20 -18 -17 -17 -15 -15 -15 -15 -14 -14 -12 -12 -10 -10 -10 -9 -9 -9 -9 -9 -9 -9 -9 -9 -9 -10 -10 -10 -10
-20 -21 -21 -21 -21 -21 -21 -21 -21 -21 -21 -21 -21 -21 -20 -21 -19 -18 -17 -16 -15 -15 -15 -15 -13 -12 -11 -10 -10 -10 -10 -9 -9 -9 -9 -9 -10 -10 -9 -10 -10 -10 -10 -10
-20 -20 -20 -21 -21 -21 -21 -21 -20 -21 -22 -21 -20 -20 -20 -20 -19 -17 -16 -16 -15 -16 -15 -15 -13 -13 -11 -11 -10 -10 -10 -10 -9 -9 -10 -10 -10 -10 -9 -10 -10 -10 -10 -10
-20 -20 -20 -20 -21 -21 -20 -21 -21 -21 -21 -21 -21 -21 -20 -20 -19 -18 -16 -16 -15 -16 -15 -15 -14 -12 -11 -11 -11 -11 -10 -10 -10 -10 -10 -10 -10 -9 -10 -10 -10 -10 -10 -10
-21 -20 -20 -20 -20 -20 -20 -21 -21 -21 -21 -21 -21 -20 -21 -20 -19 -19 -18 -17 -15 -16 -16 -15 -14 -12 -11 -11 -11 -11 -11 -10 -10 -10 -10 -10 -10 -10 -10 -10 -10 -10 -10 -10
-20 -20 -20 -19 -20 -20 -20 -20 -21 -21 -21 -20 -20 -19 -20 -20 -20 -20 -19 -18 -17 -14 -14 -14 -14 -12 -12 -11 -12 -12 -12 -11 -10 -10 -10 -10 -10 -10 -10 -10 -10 -10 -10 -10
-20 -20 -20 -20 -20 -20 -20 -20 -20 -20 -20 -20 -20 -20 -20 -19 -19 -19 -18 -19 -18 -18 -14 -13 -12 -12 -13 -12 -12 -12 -12 -11 -10 -10 -10 -10 -10 -10 -10 -10 -11 -10 -10 -10
-20 -20 -20 -20 -20 -20 -20 -19 -19 -19 -19 -20 -20 -20 -19 -18 -19 -19 -17 -18 -18 -16 -13 -13 -13 -12 -12 -12 -11 -11 -12 -11 -11 -11 -10 -10 -10 -10 -10 -11 -11 -10 -10 -10
-20 -20 -21 -21 -21 -20 -20 -20 -19 -19 -19 -20 -20 -20 -19 -18 -19 -18 -17 -17 -17 -14 -13 -13 -13 -13 -12 -11 -12 -12 -11 -11 -11 -10 -10 -11 -11 -11 -11 -11 -10 -10 -11 -11
-21 -21 -21 -21 -20 -20 -20 -20 -20 -20 -19 -19 -20 -20 -19 -19 -19 -16 -16 -17 -15 -15 -14 -13 -13 -13 -13 -13 -13 -12 -12 -11 -11 -10 -11 -11 -11 -11 -11 -11 -11 -11 -11 -11
-21 -21 -21 -20 -20 -21 -20 -20 -20 -20 -20 -19 -18 -19 -19 -19 -18 -15 -15 -15 -15 -15 -14 -13 -13 -13 -13 -12 -11 -12 -12 -11 -11 -11 -11 -11 -11 -11 -11 -11 -11 -11 -11 -11
-21 -22 -21 -21 -21 -20 -20 -20 -20 -20 -20 -19 -19 -19 -19 -18 -17 -15 -15 -14 -15 -14 -14 -12 -13 -13 -12 -11 -12 -13 -12 -11 -11 -11 -11 -11 -11 -11 -11 -11 -11 -11 -11 -11
-21 -20 -20 -20 -21 -20 -20 -20 -20 -21 -20 -18 -18 -18 -18 -18 -17 -14 -14 -14 -15 -14 -14 -12 -12 -13 -11 -13 -13 -12 -12 -11 -11 -11 -11 -11 -11 -11 -11 -11 -11 -11 -11 -11
-20 -20 -20 -20 -20 -20 -20 -21 -20 -20 -19 -18 -17 -17 -17 -17 -18 -15 -13 -15 -14 -14 -13 -13 -12 -12 -12 -12 -12 -12 -11 -11 -12 -11 -11 -11 -11 -11 -11 -11 -11 -11 -11 -11

GFSCGP_500_temp_069.txt.gz
Temp
-14 -14 -14 -14 -14 -14 -13 -13 -13 -13 -13 -13 -12 -11 -11 -11 -11 -11 -11 -12 -11 -11 -11 -11 -11 -12 -12 -11 -11 -11 -11 -10 -10 -9 -10 -9 -9 -10 -10 -10 -10 -10 -10 -10
-15 -15 -14 -14 -14 -14 -14 -14 -13 -13 -13 -13 -12 -11 -12 -12 -11 -11 -11 -11 -11 -11 -11 -12 -12 -12 -12 -12 -12 -12 -12 -11 -11 -10 -11 -10 -10 -10 -11 -9 -10 -10 -10 -10
-16 -15 -15 -15 -15 -15 -15 -14 -14 -13 -13 -13 -12 -11 -11 -12 -12 -12 -11 -11 -11 -11 -11 -11 -11 -12 -11 -12 -12 -11 -11 -11 -11 -11 -11 -10 -10 -10 -10 -10 -10 -10 -10 -9
-16 -16 -16 -16 -16 -16 -16 -16 -14 -14 -14 -13 -13 -11 -11 -11 -12 -12 -12 -12 -12 -11 -11 -11 -11 -11 -11 -12 -12 -12 -11 -11 -10 -11 -10 -10 -11 -11 -10 -10 -10 -11 -10 -10
-17 -17 -17 -17 -17 -17 -17 -16 -16 -16 -15 -14 -14 -14 -11 -12 -12 -12 -13 -12 -12 -11 -11 -10 -10 -11 -11 -11 -11 -12 -11 -11 -10 -10 -10 -10 -11 -11 -10 -10 -11 -11 -11 -10
-17 -17 -17 -17 -17 -17 -17 -17 -16 -16 -16 -15 -16 -16 -10 -12 -13 -13 -13 -12 -12 -11 -11 -11 -11 -10 -10 -11 -11 -11 -11 -10 -11 -10 -9 -9 -10 -10 -10 -11 -11 -11 -11 -11
-18 -18 -18 -18 -18 -18 -18 -18 -17 -17 -17 -17 -17 -18 -12 -13 -14 -14 -13 -13 -12 -12 -11 -11 -11 -11 -11 -11 -11 -11 -11 -11 -10 -10 -10 -9 -9 -9 -10 -11 -11 -11 -11 -11
-18 -18 -19 -19 -19 -18 -18 -18 -19 -19 -19 -19 -19 -18 -13 -16 -17 -17 -15 -14 -13 -12 -12 -11 -11 -11 -11 -11 -11 -11 -11 -10 -11 -11 -10 -9 -9 -10 -10 -10 -11 -11 -11 -11
-19 -19 -19 -20 -19 -19 -19 -19 -19 -21 -21 -22 -21 -20 -20 -19 -19 -19 -19 -17 -16 -14 -13 -11 -10 -10 -11 -11 -11 -11 -11 -10 -10 -11 -11 -10 -10 -9 -10 -10 -10 -11 -10 -10
-19 -18 -19 -20 -19 -19 -19 -19 -20 -21 -21 -22 -21 -21 -20 -20 -20 -20 -20 -19 -19 -17 -14 -12 -11 -11 -10 -11 -11 -11 -11 -11 -10 -10 -11 -10 -10 -10 -10 -9 -10 -10 -9 -9
-20 -19 -19 -19 -19 -19 -20 -20 -21 -21 -22 -22 -21 -20 -20 -20 -20 -20 -20 -19 -19 -19 -17 -13 -12 -12 -11 -10 -10 -10 -11 -11 -11 -10 -11 -11 -10 -10 -10 -9 -9 -9 -9 -9
-20 -19 -19 -19 -19 -19 -20 -21 -21 -22 -22 -22 -21 -20 -20 -20 -20 -20 -19 -19 -19 -18 -18 -17 -17 -14 -11 -10 -10 -10 -11 -11 -11 -11 -11 -11 -10 -10 -9 -9 -9 -9 -9 -9
-20 -19 -19 -19 -20 -20 -20 -21 -22 -22 -22 -21 -22 -20 -20 -20 -20 -20 -19 -19 -18 -17 -17 -18 -18 -17 -12 -11 -11 -10 -10 -11 -11 -10 -11 -10 -10 -10 -9 -9 -10 -9 -9 -9
-20 -19 -20 -19 -20 -19 -20 -21 -21 -22 -21 -21 -21 -20 -20 -20 -20 -20 -20 -19 -18 -18 -17 -18 -18 -17 -15 -14 -12 -11 -11 -11 -11 -11 -11 -11 -10 -10 -10 -10 -10 -10 -10 -10
-20 -19 -20 -19 -20 -20 -20 -21 -21 -21 -21 -21 -21 -20 -20 -20 -20 -20 -19 -19 -18 -18 -18 -18 -18 -17 -16 -15 -13 -11 -11 -11 -11 -10 -11 -10 -10 -10 -10 -10 -10 -10 -10 -10
-20 -20 -20 -20 -20 -20 -20 -21 -21 -21 -21 -21 -21 -21 -20 -20 -20 -20 -20 -19 -18 -19 -17 -16 -15 -15 -16 -15 -14 -12 -12 -11 -11 -11 -11 -10 -10 -10 -10 -10 -11 -10 -10 -10
-20 -20 -20 -19 -20 -20 -20 -21 -21 -21 -21 -21 -20 -21 -20 -20 -19 -20 -21 -18 -18 -18 -17 -16 -16 -16 -15 -14 -14 -13 -13 -11 -11 -12 -12 -11 -11 -10 -10 -11 -11 -11 -11 -11
-20 -21 -20 -20 -20 -20 -20 -21 -21 -21 -21 -21 -20 -20 -20 -20 -20 -21 -20 -19 -18 -18 -17 -14 -15 -16 -15 -14 -14 -14 -13 -12 -12 -12 -12 -11 -11 -10 -11 -11 -11 -11 -11 -11
-21 -20 -21 -20 -20 -20 -20 -21 -21 -21 -21 -21 -21 -20 -20 -20 -19 -20 -19 -18 -17 -17 -16 -15 -16 -15 -14 -14 -14 -14 -13 -13 -13 -12 -11 -11 -10 -11 -11 -11 -12 -11 -11 -11
-21 -21 -21 -21 -21 -21 -21 -21 -21 -21 -21 -20 -20 -20 -20 -20 -19 -19 -19 -18 -18 -17 -16 -15 -14 -14 -14 -14 -14 -13 -13 -13 -12 -12 -12 -11 -11 -11 -12 -11 -11 -11 -10 -10
-21 -21 -21 -22 -21 -21 -22 -21 -21 -21 -20 -20 -20 -20 -19 -19 -19 -18 -18 -17 -18 -18 -16 -15 -15 -15 -14 -14 -14 -13 -13 -13 -13 -12 -12 -12 -11 -11 -11 -11 -11 -10 -10 -10
-21 -21 -21 -21 -21 -21 -21 -21 -21 -21 -21 -20 -20 -20 -19 -19 -19 -17 -16 -17 -18 -17 -16 -15 -14 -14 -14 -14 -13 -13 -13 -14 -12 -11 -10 -11 -11 -11 -11 -11 -11 -10 -10 -10
-21 -21 -21 -21 -20 -22 -22 -21 -21 -21 -21 -20 -20 -20 -19 -19 -18 -15 -15 -16 -16 -16 -16 -15 -15 -14 -14 -13 -13 -13 -13 -12 -10 -10 -12 -11 -11 -11 -11 -11 -11 -11 -10 -10
-22 -21 -20 -20 -22 -21 -21 -21 -21 -21 -20 -20 -20 -20 -19 -18 -17 -15 -14 -15 -15 -16 -15 -15 -14 -14 -14 -14 -14 -14 -12 -10 -12 -13 -12 -11 -11 -11 -11 -11 -10 -10 -11 -11
-20 -21 -21 -21 -21 -20 -21 -21 -21 -21 -20 -21 -20 -19 -17 -16 -16 -15 -14 -15 -15 -14 -14 -14 -13 -13 -14 -13 -13 -14 -12 -12 -13 -12 -12 -11 -11 -11 -11 -10 -10 -11 -11 -11
-21 -20 -20 -20 -20 -20 -20 -21 -21 -20 -20 -20 -18 -17 -17 -16 -16 -15 -14 -14 -14 -14 -13 -13 -13 -13 -13 -14 -12 -12 -12 -13 -12 -12 -12 -11 -11 -11 -11 -11 -11 -11 -11 -11

GFSCGP_500_temp_072.txt.gz
Temp
-15 -15 -15 -15 -15 -15 -14 -14 -14 -14 -14 -13 -13 -12 -12 -12 -12 -12 -12 -13 -13 -12 -12 -12 -12 -12 -11 -11 -11 -11 -11 -11 -10 -10 -10 -9 -9 -9 -9 -10 -11 -10 -10 -11
-15 -16 -15 -15 -15 -15 -15 -15 -14 -14 -14 -13 -13 -12 -12 -12 -12 -12 -12 -12 -13 -13 -12 -12 -13 -13 -12 -11 -11 -12 -11 -11 -10 -10 -10 -10 -9 -10 -10 -10 -10 -10 -11 -11
-16 -16 -16 -16 -16 -15 -15 -15 -14 -14 -14 -13 -13 -12 -12 -12 -12 -12 -12 -12 -12 -12 -12 -13 -12 -13 -12 -13 -12 -12 -12 -11 -11 -10 -11 -10 -10 -10 -10 -9 -10 -10 -12 -11
-16 -16 -16 -16 -16 -16 -16 -15 -15 -14 -14 -14 -14 -12 -12 -13 -13 -13 -12 -12 -12 -12 -12 -12 -13 -12 -12 -13 -13 -12 -12 -11 -11 -11 -10 -10 -10 -9 -10 -11 -11 -11 -11 -11
-17 -17 -17 -17 -17 -17 -16 -16 -16 -15 -15 -14 -14 -14 -11 -12 -13 -13 -13 -13 -12 -12 -11 -11 -12 -13 -12 -12 -12 -13 -12 -13 -13 -12 -10 -10 -10 -10 -10 -10 -11 -10 -10 -11
-18 -18 -18 -18 -18 -17 -17 -17 -17 -17 -17 -15 -16 -15 -12 -13 -13 -13 -12 -13 -13 -12 -12 -11 -11 -11 -12 -12 -12 -12 -12 -11 -12 -12 -11 -11 -11 -11 -11 -10 -11 -11 -11 -11
-18 -18 -19 -19 -19 -18 -18 -17 -17 -16 -16 -16 -16 -14 -13 -13 -13 -14 -13 -13 -12 -12 -12 -11 -11 -11 -11 -11 -11 -12 -11 -10 -11 -11 -12 -11 -11 -12 -10 -10 -11 -11 -11 -12
-18 -19 -19 -19 -19 -18 -18 -18 -19 -18 -17 -17 -17 -15 -13 -14 -13 -14 -14 -14 -13 -13 -12 -12 -11 -11 -11 -11 -11 -11 -11 -10 -11 -11 -11 -11 -11 -10 -10 -11 -11 -11 -11 -12
-19 -18 -19 -19 -19 -19 -18 -19 -19 -18 -18 -17 -17 -17 -16 -17 -15 -17 -18 -18 -17 -15 -13 -13 -11 -11 -11 -11 -11 -11 -11 -10 -10 -10 -10 -10 -11 -11 -11 -11 -11 -11 -11 -11
-19 -19 -19 -20 -19 -19 -19 -19 -19 -19 -18 -18 -17 -18 -19 -20 -21 -21 -21 -21 -20 -19 -18 -15 -13 -11 -11 -11 -11 -10 -11 -10 -10 -10 -10 -10 -10 -10 -10 -11 -11 -11 -12 -11
-19 -19 -19 -20 -20 -19 -19 -19 -19 -19 -19 -20 -19 -18 -20 -21 -21 -21 -21 -20 -20 -20 -19 -18 -15 -13 -11 -11 -10 -10 -10 -10 -10 -10 -10 -10 -10 -10 -10 -10 -11 -12 -11 -10
-20 -20 -19 -20 -20 -19 -20 -19 -19 -19 -19 -19 -20 -18 -20 -21 -21 -21 -20 -20 -20 -19 -19 -19 -18 -15 -13 -11 -10 -10 -10 -10 -10 -10 -11 -10 -10 -11 -10 -10 -11 -11 -10 -10
-19 -19 -20 -20 -20 -20 -19 -19 -20 -19 -19 -19 -20 -19 -21 -21 -21 -21 -20 -20 -20 -19 -19 -19 -18 -16 -15 -12 -11 -10 -9 -10 -10 -10 -10 -11 -11 -11 -11 -11 -10 -10 -10 -11
-19 -19 -20 -20 -20 -20 -20 -20 -20 -19 -20 -20 -19 -20 -21 -22 -21 -20 -20 -20 -20 -19 -19 -18 -17 -17 -17 -15 -12 -11 -10 -10 -10 -11 -11 -10 -10 -11 -11 -11 -10 -11 -11 -10
-19 -20 -21 -20 -20 -20 -20 -20 -20 -20 -20 -20 -20 -20 -22 -21 -20 -20 -20 -20 -20 -19 -19 -18 -17 -17 -17 -17 -16 -12 -10 -10 -10 -11 -11 -10 -10 -11 -11 -11 -11 -11 -10 -10
-20 -20 -21 -20 -20 -20 -20 -20 -20 -21 -21 -20 -20 -20 -21 -21 -21 -21 -20 -20 -20 -19 -18 -17 -18 -18 -17 -17 -15 -14 -12 -11 -11 -11 -11 -11 -11 -11 -11 -11 -11 -11 -10 -10
-19 -20 -21 -20 -20 -20 -20 -20 -21 -20 -21 -21 -21 -21 -21 -21 -21 -21 -21 -20 -19 -19 -18 -19 -17 -17 -17 -15 -15 -15 -13 -12 -11 -12 -12 -11 -11 -11 -11 -11 -11 -10 -10 -10
-20 -21 -21 -20 -20 -20 -20 -20 -21 -21 -21 -21 -21 -21 -21 -21 -21 -21 -21 -20 -20 -20 -18 -18 -17 -16 -16 -15 -13 -15 -14 -13 -12 -12 -12 -11 -11 -11 -11 -10 -11 -10 -10 -10
-21 -21 -21 -21 -21 -20 -20 -21 -21 -21 -21 -22 -21 -21 -21 -21 -20 -21 -21 -20 -20 -18 -18 -18 -17 -15 -15 -15 -15 -15 -14 -15 -13 -13 -12 -12 -12 -11 -10 -10 -10 -10 -10 -10
-22 -21 -22 -22 -22 -21 -21 -21 -21 -21 -21 -21 -21 -21 -21 -20 -20 -20 -20 -20 -20 -18 -17 -18 -17 -16 -15 -14 -15 -15 -15 -14 -13 -13 -12 -13 -12 -11 -11 -10 -11 -11 -10 -11
-22 -22 -22 -22 -22 -21 -22 -22 -21 -22 -21 -21 -21 -21 -21 -20 -20 -20 -20 -20 -18 -18 -17 -17 -16 -16 -15 -15 -15 -15 -14 -14 -14 -13 -13 -12 -12 -11 -11 -11 -11 -11 -11 -12
-22 -22 -22 -22 -22 -21 -22 -21 -22 -22 -21 -21 -21 -20 -20 -20 -20 -20 -20 -19 -17 -17 -17 -16 -16 -16 -15 -15 -15 -14 -15 -15 -14 -13 -13 -12 -12 -12 -12 -11 -11 -11 -11 -11
-22 -22 -22 -22 -21 -22 -21 -21 -21 -21 -20 -20 -20 -19 -20 -20 -19 -19 -19 -18 -16 -16 -16 -16 -15 -15 -15 -14 -14 -14 -14 -14 -14 -13 -12 -12 -12 -11 -11 -11 -12 -12 -11 -11
-22 -21 -21 -21 -22 -21 -21 -21 -21 -21 -21 -20 -20 -20 -20 -20 -18 -17 -17 -15 -15 -15 -15 -14 -15 -15 -15 -14 -14 -14 -13 -13 -14 -14 -13 -13 -12 -11 -11 -11 -11 -11 -11 -11
-21 -21 -21 -21 -21 -20 -21 -21 -21 -21 -20 -20 -20 -20 -19 -18 -17 -17 -16 -15 -14 -14 -14 -14 -14 -14 -13 -13 -13 -14 -13 -13 -13 -13 -14 -12 -12 -12 -12 -11 -11 -11 -11 -11
-21 -21 -21 -21 -21 -21 -21 -21 -20 -20 -20 -19 -18 -17 -17 -16 -16 -16 -15 -14 -14 -14 -14 -14 -14 -13 -13 -14 -14 -13 -13 -13 -12 -13 -13 -12 -13 -12 -12 -11 -11 -11 -11 -11

GFSCGP_500_temp_075.txt.gz
Temp
-16 -16 -15 -15 -15 -15 -15 -15 -15 -15 -15 -14 -14 -14 -13 -13 -13 -13 -13 -14 -13 -13 -13 -13 -12 -12 -11 -11 -10 -9 -9 -9 -9 -9 -9 -10 -10 -9 -9 -10 -10 -10 -10 -10
-16 -16 -16 -16 -16 -16 -15 -15 -15 -15 -15 -14 -14 -14 -14 -13 -13 -13 -13 -13 -13 -14 -13 -13 -13 -12 -12 -12 -11 -10 -9 -9 -9 -10 -10 -10 -11 -11 -10 -9 -9 -10 -11 -10
-16 -16 -16 -16 -16 -16 -16 -16 -15 -15 -15 -15 -14 -14 -14 -14 -13 -13 -13 -13 -13 -13 -14 -13 -13 -13 -13 -12 -12 -11 -10 -9 -10 -11 -10 -10 -10 -11 -10 -10 -10 -10 -10 -10
-17 -17 -17 -17 -17 -16 -16 -16 -16 -15 -15 -15 -15 -13 -14 -14 -14 -14 -13 -13 -13 -13 -13 -13 -13 -12 -12 -13 -12 -12 -12 -12 -12 -11 -10 -10 -10 -10 -11 -11 -11 -11 -10 -10
-18 -17 -17 -18 -18 -17 -17 -16 -16 -16 -15 -15 -16 -14 -13 -13 -14 -14 -14 -13 -13 -13 -12 -12 -12 -12 -12 -12 -12 -12 -12 -11 -11 -11 -10 -10 -9 -10 -10 -11 -11 -10 -11 -11
-18 -18 -18 -18 -18 -18 -17 -17 -17 -16 -16 -16 -16 -16 -13 -14 -14 -14 -14 -14 -13 -13 -13 -12 -13 -12 -12 -12 -12 -13 -13 -12 -12 -11 -10 -9 -9 -10 -10 -10 -11 -10 -11 -12
-19 -19 -19 -19 -19 -19 -18 -19 -18 -17 -17 -17 -16 -15 -14 -16 -15 -15 -14 -14 -14 -14 -13 -13 -12 -12 -12 -12 -12 -12 -12 -12 -12 -12 -11 -11 -10 -11 -11 -11 -11 -11 -11 -12
-19 -19 -19 -19 -20 -19 -19 -19 -19 -18 -17 -17 -16 -15 -15 -16 -16 -15 -14 -14 -14 -14 -13 -13 -12 -12 -12 -12 -12 -12 -11 -11 -12 -11 -11 -10 -11 -10 -11 -11 -11 -11 -11 -12
-18 -18 -19 -20 -19 -19 -19 -19 -19 -19 -18 -18 -17 -16 -16 -17 -18 -17 -17 -16 -15 -14 -13 -13 -13 -13 -12 -12 -12 -11 -11 -11 -11 -12 -12 -11 -11 -11 -11 -12 -11 -10 -11 -12
-18 -18 -19 -19 -19 -19 -19 -19 -19 -19 -18 -18 -17 -17 -16 -18 -19 -19 -18 -17 -17 -16 -15 -14 -13 -13 -13 -12 -11 -11 -11 -11 -11 -11 -11 -10 -10 -11 -11 -11 -11 -10 -11 -12
-19 -19 -19 -19 -20 -20 -19 -19 -19 -19 -19 -19 -18 -16 -19 -20 -20 -19 -20 -21 -21 -20 -20 -19 -17 -13 -12 -12 -12 -11 -11 -11 -11 -10 -10 -10 -10 -10 -10 -10 -10 -10 -11 -12
-19 -18 -19 -20 -20 -20 -20 -20 -20 -19 -19 -19 -19 -17 -20 -20 -21 -20 -20 -20 -20 -20 -20 -20 -20 -19 -17 -12 -11 -12 -11 -10 -10 -10 -10 -10 -10 -10 -10 -10 -10 -10 -10 -11
-19 -18 -19 -19 -20 -20 -20 -20 -20 -20 -19 -19 -19 -18 -20 -20 -20 -20 -20 -20 -20 -20 -20 -19 -19 -19 -19 -16 -12 -11 -11 -10 -10 -10 -10 -10 -10 -10 -10 -10 -10 -10 -10 -10
-19 -19 -19 -20 -21 -20 -21 -20 -20 -20 -20 -20 -19 -18 -20 -21 -20 -21 -20 -20 -20 -19 -19 -19 -19 -19 -19 -17 -15 -12 -11 -10 -10 -10 -10 -10 -10 -10 -10 -11 -11 -11 -10 -10
-20 -19 -20 -20 -20 -21 -21 -20 -20 -20 -20 -20 -20 -20 -20 -20 -20 -21 -21 -20 -20 -20 -19 -19 -19 -19 -18 -17 -17 -14 -12 -11 -10 -10 -10 -10 -10 -10 -10 -10 -11 -11 -11 -10
-21 -20 -20 -20 -21 -21 -21 -21 -20 -21 -21 -20 -20 -20 -21 -20 -20 -21 -21 -21 -20 -19 -19 -19 -19 -18 -17 -17 -17 -17 -14 -11 -10 -10 -10 -10 -10 -11 -10 -10 -11 -11 -11 -11
-21 -21 -21 -20 -21 -21 -21 -21 -21 -21 -21 -21 -20 -20 -20 -20 -20 -20 -21 -20 -20 -20 -20 -20 -18 -17 -17 -17 -17 -16 -16 -15 -10 -10 -10 -10 -10 -11 -11 -10 -11 -11 -11 -11
-21 -22 -21 -21 -21 -20 -21 -21 -21 -21 -21 -21 -21 -21 -21 -20 -20 -20 -21 -20 -20 -20 -20 -19 -18 -17 -17 -17 -16 -15 -16 -15 -12 -10 -10 -10 -11 -11 -11 -11 -11 -11 -11 -11
-22 -22 -21 -22 -21 -21 -21 -21 -21 -21 -21 -21 -21 -21 -21 -21 -20 -20 -20 -20 -20 -20 -20 -19 -17 -18 -17 -15 -14 -14 -14 -13 -11 -12 -11 -11 -11 -11 -11 -11 -11 -11 -11 -11
-22 -22 -22 -22 -22 -21 -21 -22 -22 -21 -21 -21 -21 -21 -21 -21 -19 -20 -20 -20 -20 -20 -19 -18 -17 -18 -17 -15 -14 -14 -14 -13 -13 -13 -12 -12 -12 -12 -11 -11 -11 -11 -11 -11
-22 -22 -22 -22 -21 -21 -22 -22 -21 -21 -21 -21 -21 -21 -21 -20 -20 -19 -19 -19 -19 -19 -19 -18 -18 -16 -16 -16 -15 -15 -14 -14 -13 -13 -13 -12 -12 -12 -11 -11 -11 -11 -11 -11
-22 -22 -22 -22 -21 -22 -22 -21 -21 -21 -21 -21 -21 -21 -20 -20 -19 -19 -19 -19 -18 -17 -18 -18 -17 -16 -15 -16 -15 -14 -14 -14 -14 -14 -13 -13 -12 -12 -12 -12 -11 -11 -11 -11
-22 -22 -22 -22 -22 -21 -21 -21 -21 -21 -20 -20 -20 -20 -20 -20 -19 -19 -19 -19 -17 -15 -16 -16 -16 -16 -15 -16 -16 -16 -15 -14 -15 -14 -14 -13 -13 -12 -12 -12 -11 -11 -11 -11
-21 -22 -21 -21 -21 -21 -21 -22 -22 -21 -21 -21 -21 -20 -19 -18 -18 -18 -18 -17 -15 -15 -15 -15 -16 -16 -16 -15 -15 -15 -15 -14 -14 -14 -14 -13 -13 -12 -12 -12 -12 -12 -12 -12
-21 -21 -21 -21 -21 -21 -21 -21 -21 -21 -21 -21 -20 -19 -19 -18 -17 -17 -16 -15 -14 -14 -14 -15 -15 -15 -16 -15 -14 -14 -15 -14 -14 -14 -14 -13 -13 -13 -13 -13 -12 -12 -13 -12
-21 -21 -21 -21 -21 -21 -21 -21 -21 -20 -19 -19 -19 -18 -18 -17 -16 -16 -15 -14 -14 -14 -14 -14 -14 -15 -15 -14 -14 -14 -14 -14 -14 -14 -13 -13 -13 -12 -12 -12 -12 -12 -11 -11

GFSCGP_500_temp_078.txt.gz
Temp
-15 -15 -15 -15 -15 -15 -15 -15 -15 -15 -15 -15 -15 -15 -14 -14 -14 -14 -14 -14 -15 -14 -13 -13 -12 -10 -10 -10 -10 -9 -9 -10 -9 -9 -9 -8 -9 -9 -9 -9 -9 -9 -10 -9
-15 -16 -16 -15 -16 -16 -16 -15 -15 -15 -15 -15 -15 -14 -14 -14 -14 -14 -14 -14 -14 -15 -14 -14 -13 -12 -11 -9 -10 -10 -9 -10 -10 -10 -9 -9 -9 -9 -9 -10 -10 -9 -10 -10
-16 -15 -16 -16 -16 -16 -16 -16 -16 -15 -15 -15 -15 -14 -15 -14 -14 -14 -14 -14 -14 -14 -14 -14 -13 -13 -12 -11 -11 -10 -10 -10 -10 -10 -10 -10 -9 -8 -10 -9 -10 -10 -11 -11
-16 -16 -16 -16 -17 -17 -17 -17 -16 -16 -16 -15 -15 -14 -14 -14 -15 -14 -14 -14 -14 -14 -14 -14 -14 -13 -13 -12 -12 -12 -11 -10 -9 -9 -10 -10 -9 -9 -9 -11 -10 -10 -11 -11
-17 -16 -17 -17 -17 -17 -17 -17 -17 -16 -16 -16 -16 -15 -15 -15 -15 -15 -15 -15 -14 -14 -13 -13 -13 -13 -14 -13 -13 -12 -12 -12 -11 -10 -10 -10 -10 -10 -10 -10 -10 -10 -11 -11
-17 -17 -17 -18 -18 -18 -18 -17 -17 -17 -17 -16 -16 -16 -16 -16 -16 -16 -15 -15 -15 -14 -14 -13 -13 -13 -13 -13 -12 -13 -12 -12 -11 -11 -10 -11 -11 -11 -11 -10 -11 -9 -11 -11
-17 -18 -18 -18 -19 -19 -19 -19 -19 -20 -19 -18 -17 -16 -16 -17 -17 -16 -16 -16 -15 -14 -14 -14 -13 -13 -13 -13 -13 -12 -13 -12 -11 -11 -11 -11 -11 -12 -12 -11 -11 -11 -11 -11
-18 -19 -20 -18 -19 -20 -21 -20 -21 -20 -19 -19 -19 -16 -18 -17 -18 -17 -16 -15 -15 -15 -14 -14 -13 -13 -13 -13 -13 -13 -12 -12 -12 -12 -11 -11 -10 -11 -11 -12 -12 -11 -11 -11
-18 -17 -19 -19 -19 -19 -20 -20 -20 -19 -19 -18 -18 -18 -18 -18 -18 -17 -17 -16 -16 -15 -14 -14 -14 -13 -13 -13 -12 -12 -12 -12 -12 -12 -12 -12 -11 -11 -11 -11 -11 -11 -11 -10
-18 -18 -18 -18 -19 -19 -20 -21 -20 -20 -19 -19 -19 -18 -20 -19 -19 -19 -17 -16 -16 -15 -14 -14 -14 -14 -13 -13 -12 -12 -12 -11 -11 -11 -11 -11 -11 -12 -11 -11 -10 -10 -10 -10
-18 -18 -19 -18 -19 -19 -20 -19 -20 -20 -19 -20 -19 -19 -19 -20 -19 -19 -18 -17 -17 -17 -17 -17 -16 -15 -14 -13 -13 -12 -12 -12 -11 -11 -11 -11 -11 -11 -11 -11 -11 -11 -10 -11
-19 -19 -19 -19 -19 -19 -20 -20 -21 -20 -20 -19 -19 -18 -19 -20 -19 -18 -18 -18 -18 -17 -17 -18 -18 -18 -17 -15 -14 -13 -12 -12 -12 -11 -11 -11 -11 -10 -10 -10 -11 -11 -11 -11
-19 -19 -19 -19 -20 -20 -20 -20 -21 -21 -20 -20 -20 -19 -19 -19 -18 -19 -18 -18 -19 -18 -18 -19 -19 -19 -19 -19 -17 -16 -14 -12 -12 -11 -11 -11 -10 -10 -10 -10 -10 -11 -11 -11
-20 -20 -20 -20 -21 -22 -21 -21 -21 -21 -21 -20 -19 -19 -19 -19 -19 -19 -19 -19 -19 -19 -19 -20 -20 -19 -19 -19 -19 -19 -17 -13 -12 -11 -11 -11 -10 -10 -10 -10 -11 -11 -11 -10
-20 -20 -21 -21 -21 -22 -21 -21 -21 -22 -21 -21 -20 -20 -19 -20 -19 -19 -19 -20 -20 -20 -20 -20 -19 -19 -19 -19 -19 -19 -18 -15 -13 -11 -11 -11 -10 -10 -10 -10 -11 -11 -11 -10
-21 -21 -21 -21 -21 -21 -21 -21 -21 -22 -21 -21 -20 -19 -20 -20 -20 -20 -20 -20 -20 -20 -20 -20 -20 -20 -19 -19 -18 -18 -17 -17 -17 -13 -11 -11 -10 -10 -10 -10 -10 -10 -11 -11
-21 -22 -22 -21 -21 -21 -20 -22 -21 -21 -21 -21 -21 -20 -20 -20 -20 -20 -20 -20 -20 -20 -20 -20 -20 -20 -20 -19 -18 -18 -18 -17 -17 -17 -11 -10 -10 -10 -10 -10 -10 -10 -10 -11
-22 -22 -22 -22 -22 -21 -21 -22 -22 -22 -21 -21 -21 -20 -21 -21 -20 -20 -20 -20 -20 -20 -20 -20 -20 -20 -19 -18 -17 -17 -17 -17 -16 -16 -14 -10 -10 -10 -10 -10 -10 -11 -10 -11
-22 -22 -22 -21 -22 -21 -22 -21 -22 -22 -21 -21 -21 -20 -20 -20 -20 -20 -21 -20 -20 -20 -19 -20 -20 -20 -18 -17 -16 -16 -15 -15 -15 -15 -15 -11 -10 -10 -10 -10 -10 -10 -11 -11
-22 -21 -22 -22 -22 -21 -21 -21 -22 -21 -20 -20 -21 -21 -21 -20 -20 -20 -20 -20 -20 -19 -19 -19 -19 -20 -18 -17 -16 -14 -14 -14 -14 -15 -14 -11 -10 -10 -10 -10 -10 -10 -11 -11
-22 -22 -22 -22 -22 -22 -22 -22 -21 -21 -21 -21 -21 -20 -20 -20 -20 -20 -20 -20 -19 -19 -19 -19 -19 -18 -17 -16 -16 -15 -14 -14 -13 -12 -12 -11 -11 -11 -11 -11 -11 -11 -11 -11
-22 -22 -22 -22 -22 -22 -21 -21 -22 -21 -21 -21 -21 -20 -20 -20 -20 -20 -20 -19 -18 -18 -18 -18 -18 -17 -16 -16 -15 -14 -14 -11 -11 -13 -12 -11 -11 -11 -11 -11 -11 -11 -11 -11
-22 -22 -22 -22 -22 -22 -22 -21 -21 -21 -20 -20 -20 -20 -19 -19 -19 -19 -19 -19 -18 -17 -16 -17 -16 -17 -16 -16 -15 -15 -13 -13 -11 -13 -14 -13 -12 -12 -12 -12 -11 -11 -11 -11
-21 -21 -21 -21 -21 -21 -21 -22 -22 -22 -21 -21 -20 -19 -19 -19 -18 -18 -18 -17 -16 -15 -15 -15 -16 -15 -16 -15 -15 -14 -13 -13 -13 -14 -15 -14 -13 -13 -12 -12 -12 -11 -11 -11
-21 -21 -21 -21 -21 -21 -22 -22 -22 -21 -20 -19 -18 -19 -18 -18 -17 -17 -17 -15 -14 -14 -14 -15 -15 -15 -15 -15 -15 -14 -14 -14 -14 -15 -15 -14 -14 -13 -12 -12 -12 -12 -12 -12
-21 -21 -21 -21 -21 -21 -21 -21 -21 -21 -20 -19 -19 -18 -18 -17 -17 -16 -16 -14 -14 -14 -14 -14 -15 -15 -15 -15 -15 -15 -15 -14 -14 -15 -14 -14 -14 -13 -13 -13 -12 -12 -12 -12

GFSCGP_500_temp_084.txt.gz
Temp
-13 -13 -14 -14 -14 -14 -15 -14 -13 -14 -15 -16 -16 -16 -16 -13 -13 -14 -13 -13 -13 -13 -14 -14 -15 -14 -13 -12 -12 -13 -12 -10 -10 -9 -9 -9 -9 -9 -8 -9 -9 -9 -10 -10
-14 -14 -14 -14 -14 -14 -14 -14 -14 -14 -15 -16 -15 -15 -15 -14 -13 -14 -14 -14 -14 -13 -14 -15 -14 -14 -14 -14 -13 -13 -13 -13 -11 -10 -9 -9 -9 -9 -9 -10 -9 -9 -9 -10
-14 -14 -15 -14 -14 -15 -15 -15 -15 -15 -16 -17 -17 -15 -14 -14 -15 -15 -14 -14 -14 -14 -14 -15 -14 -14 -14 -14 -14 -14 -14 -13 -12 -11 -10 -10 -9 -9 -10 -10 -9 -9 -9 -9
-14 -15 -15 -15 -14 -15 -15 -16 -17 -17 -18 -18 -18 -16 -15 -15 -16 -17 -16 -14 -14 -14 -14 -15 -14 -13 -14 -14 -14 -14 -13 -13 -13 -11 -10 -10 -10 -9 -9 -10 -10 -9 -10 -9
-14 -15 -15 -16 -15 -15 -15 -16 -16 -16 -16 -18 -16 -18 -14 -16 -16 -16 -16 -17 -14 -14 -14 -14 -14 -14 -14 -13 -13 -14 -13 -13 -12 -11 -12 -12 -10 -9 -10 -9 -10 -10 -10 -9
-15 -15 -16 -16 -17 -17 -17 -17 -18 -17 -18 -19 -16 -19 -15 -16 -17 -17 -17 -17 -15 -14 -15 -14 -14 -14 -14 -14 -14 -14 -13 -13 -13 -13 -12 -11 -11 -10 -10 -10 -10 -10 -9 -9
-15 -16 -16 -17 -17 -18 -18 -19 -19 -19 -18 -18 -18 -17 -17 -17 -17 -17 -17 -16 -16 -15 -15 -15 -15 -14 -14 -14 -14 -14 -13 -13 -13 -13 -12 -12 -12 -11 -10 -11 -10 -10 -10 -10
-16 -17 -18 -18 -18 -17 -18 -18 -18 -18 -18 -18 -17 -17 -16 -17 -17 -18 -18 -17 -16 -16 -16 -17 -16 -15 -15 -14 -14 -14 -14 -14 -14 -13 -13 -14 -14 -13 -11 -11 -10 -10 -10 -10
-17 -17 -18 -18 -18 -18 -18 -18 -18 -18 -18 -19 -18 -17 -18 -18 -17 -18 -18 -18 -18 -17 -17 -17 -17 -16 -16 -15 -15 -14 -14 -14 -14 -14 -13 -13 -13 -14 -13 -13 -12 -12 -10 -11
-17 -16 -17 -17 -19 -19 -18 -18 -19 -19 -19 -19 -18 -18 -18 -18 -18 -17 -18 -18 -18 -18 -17 -17 -17 -16 -16 -16 -15 -15 -15 -14 -14 -13 -13 -13 -13 -12 -13 -14 -13 -12 -11 -11
-17 -17 -16 -17 -19 -19 -19 -18 -19 -19 -20 -19 -19 -18 -19 -18 -18 -18 -18 -18 -18 -18 -18 -17 -17 -16 -16 -16 -16 -15 -15 -15 -14 -14 -13 -13 -13 -13 -12 -12 -14 -12 -13 -12
-18 -18 -17 -17 -19 -19 -19 -19 -19 -18 -18 -19 -19 -17 -19 -18 -18 -19 -18 -19 -19 -18 -18 -17 -17 -17 -17 -17 -17 -16 -16 -15 -15 -14 -14 -13 -13 -13 -13 -12 -12 -13 -12 -12
-18 -18 -19 -19 -20 -20 -19 -19 -19 -19 -19 -19 -19 -17 -19 -19 -18 -18 -18 -19 -18 -19 -18 -18 -17 -17 -17 -17 -17 -17 -16 -16 -15 -15 -15 -14 -13 -13 -13 -12 -12 -11 -12 -12
-19 -20 -21 -20 -20 -20 -20 -19 -19 -19 -19 -19 -19 -19 -19 -19 -18 -19 -18 -19 -19 -19 -20 -19 -18 -17 -17 -17 -17 -17 -17 -16 -16 -16 -15 -14 -14 -14 -13 -12 -12 -12 -12 -12
-18 -20 -21 -21 -22 -22 -23 -21 -21 -20 -20 -20 -20 -20 -18 -19 -20 -20 -19 -19 -19 -20 -20 -20 -18 -17 -17 -17 -18 -18 -18 -17 -17 -17 -16 -15 -15 -15 -13 -12 -12 -12 -11 -11
-20 -20 -21 -21 -22 -22 -23 -21 -23 -22 -21 -21 -21 -19 -20 -20 -21 -20 -20 -20 -20 -20 -20 -20 -19 -19 -18 -18 -19 -19 -18 -18 -19 -19 -18 -17 -17 -17 -15 -13 -12 -12 -11 -11
-20 -21 -21 -20 -21 -21 -20 -21 -21 -22 -21 -21 -21 -20 -19 -19 -20 -20 -20 -20 -20 -19 -20 -19 -19 -18 -19 -19 -19 -19 -19 -19 -19 -19 -19 -18 -18 -17 -17 -15 -13 -12 -11 -11
-20 -21 -21 -21 -21 -21 -21 -21 -20 -21 -21 -20 -20 -20 -20 -19 -19 -20 -19 -20 -19 -19 -19 -19 -19 -19 -19 -20 -19 -19 -19 -19 -19 -19 -19 -18 -18 -17 -17 -17 -14 -12 -11 -11
-21 -21 -21 -21 -20 -20 -21 -20 -20 -21 -20 -20 -20 -20 -20 -20 -19 -20 -20 -20 -19 -19 -19 -19 -19 -19 -20 -19 -18 -18 -18 -18 -18 -19 -19 -19 -18 -16 -16 -16 -16 -13 -12 -11
-21 -21 -21 -21 -20 -20 -20 -20 -20 -20 -20 -20 -20 -20 -20 -20 -20 -20 -20 -20 -19 -19 -19 -19 -19 -19 -18 -18 -18 -18 -18 -18 -19 -19 -18 -17 -16 -16 -16 -16 -16 -15 -12 -11
-21 -21 -21 -21 -20 -20 -20 -20 -20 -20 -20 -21 -21 -20 -20 -20 -19 -19 -19 -19 -20 -19 -19 -19 -19 -18 -17 -16 -15 -16 -16 -18 -19 -18 -16 -15 -14 -15 -16 -15 -16 -16 -13 -11
-20 -20 -21 -21 -21 -21 -21 -21 -21 -20 -20 -21 -20 -21 -21 -20 -19 -19 -19 -19 -18 -18 -18 -18 -17 -16 -15 -15 -16 -15 -16 -17 -16 -15 -15 -15 -15 -15 -15 -14 -16 -16 -12 -11
-20 -20 -20 -20 -21 -21 -21 -21 -21 -21 -21 -21 -20 -20 -20 -19 -19 -18 -18 -18 -18 -18 -17 -16 -15 -14 -15 -15 -15 -15 -17 -15 -14 -15 -16 -15 -14 -14 -13 -15 -16 -16 -12 -11
-21 -20 -21 -21 -21 -21 -21 -21 -21 -21 -21 -20 -20 -19 -18 -18 -17 -17 -17 -17 -17 -16 -16 -15 -14 -14 -15 -15 -14 -16 -14 -13 -14 -15 -16 -15 -14 -13 -14 -14 -15 -13 -11 -11
-20 -20 -21 -21 -21 -20 -21 -21 -21 -20 -20 -19 -19 -18 -17 -17 -16 -16 -16 -17 -16 -16 -15 -14 -14 -14 -14 -15 -15 -14 -13 -15 -14 -14 -15 -16 -15 -15 -15 -14 -12 -11 -11 -11
-20 -20 -20 -20 -21 -21 -21 -21 -20 -20 -20 -19 -19 -19 -18 -16 -16 -16 -16 -16 -16 -15 -14 -13 -13 -14 -14 -14 -14 -13 -13 -12 -12 -14 -13 -13 -13 -12 -12 -11 -11 -11 -11 -11

GFSCGP_500_temp_087.txt.gz
Temp
-13 -13 -13 -14 -14 -13 -13 -14 -13 -13 -13 -16 -16 -16 -14 -16 -15 -13 -13 -13 -13 -13 -14 -14 -12 -12 -12 -13 -12 -11 -12 -12 -12 -11 -11 -11 -10 -9 -9 -9 -9 -10 -10 -11
-13 -13 -13 -14 -14 -14 -14 -14 -14 -14 -14 -15 -16 -16 -15 -15 -16 -14 -13 -14 -15 -14 -14 -14 -14 -13 -12 -12 -12 -12 -12 -12 -12 -12 -12 -11 -10 -10 -10 -9 -9 -10 -10 -11
-13 -13 -13 -14 -14 -14 -14 -14 -14 -14 -14 -14 -15 -16 -16 -15 -15 -15 -15 -15 -15 -15 -14 -14 -13 -12 -13 -13 -12 -12 -12 -14 -13 -12 -12 -12 -11 -11 -11 -9 -10 -10 -9 -9
-13 -14 -14 -14 -14 -15 -14 -15 -15 -15 -15 -14 -16 -15 -15 -15 -15 -15 -15 -16 -15 -15 -15 -16 -15 -13 -12 -13 -13 -13 -13 -14 -14 -14 -13 -13 -11 -10 -12 -11 -10 -9 -9 -9
-13 -14 -14 -14 -15 -15 -15 -16 -16 -16 -15 -15 -16 -17 -14 -15 -16 -16 -17 -17 -17 -16 -16 -16 -16 -14 -13 -13 -13 -14 -15 -15 -15 -14 -14 -14 -14 -12 -11 -11 -12 -10 -10 -10
-13 -15 -15 -15 -15 -16 -17 -17 -17 -17 -16 -16 -15 -18 -15 -16 -17 -16 -16 -17 -17 -17 -17 -16 -16 -16 -14 -13 -13 -14 -14 -15 -14 -14 -14 -13 -13 -14 -13 -13 -10 -11 -10 -9
-14 -14 -15 -15 -15 -16 -17 -18 -17 -17 -17 -16 -17 -18 -16 -17 -17 -17 -17 -16 -16 -17 -17 -17 -17 -16 -15 -15 -14 -14 -14 -14 -14 -14 -14 -13 -13 -13 -14 -14 -13 -12 -11 -11
-15 -14 -15 -16 -17 -18 -17 -18 -18 -18 -17 -17 -18 -17 -16 -17 -17 -18 -17 -17 -17 -17 -17 -17 -17 -17 -16 -16 -15 -15 -14 -14 -14 -14 -14 -14 -13 -13 -13 -13 -13 -12 -12 -11
-16 -15 -15 -16 -18 -18 -17 -18 -18 -18 -17 -18 -18 -17 -17 -17 -18 -18 -17 -17 -18 -17 -17 -18 -17 -16 -15 -15 -15 -15 -15 -14 -15 -14 -14 -14 -14 -14 -13 -13 -12 -13 -11 -11
-16 -15 -15 -15 -17 -17 -18 -18 -18 -18 -18 -18 -18 -17 -17 -18 -18 -18 -18 -18 -18 -18 -17 -17 -18 -18 -17 -16 -16 -15 -15 -14 -14 -14 -15 -14 -13 -14 -13 -13 -13 -13 -14 -11
-16 -16 -15 -16 -16 -16 -18 -19 -19 -19 -18 -19 -18 -17 -18 -18 -18 -18 -18 -18 -18 -18 -18 -18 -19 -18 -18 -17 -17 -16 -16 -15 -15 -15 -15 -14 -15 -14 -13 -13 -13 -12 -13 -13
-16 -16 -15 -15 -17 -18 -19 -19 -19 -18 -19 -19 -19 -18 -19 -19 -19 -18 -18 -19 -18 -18 -17 -17 -17 -18 -17 -17 -17 -16 -16 -16 -15 -15 -15 -14 -14 -14 -14 -14 -13 -13 -13 -13
-17 -16 -16 -16 -17 -19 -20 -20 -20 -20 -19 -19 -19 -18 -19 -19 -19 -18 -19 -19 -19 -18 -18 -18 -19 -18 -19 -18 -18 -17 -17 -17 -16 -16 -15 -15 -15 -14 -14 -14 -14 -13 -13 -13
-17 -17 -17 -18 -18 -20 -21 -21 -21 -21 -20 -20 -19 -19 -19 -19 -19 -19 -19 -18 -19 -18 -18 -18 -18 -19 -19 -19 -18 -18 -17 -17 -17 -16 -16 -16 -15 -15 -14 -15 -14 -14 -13 -13
-16 -16 -17 -18 -20 -21 -21 -21 -21 -21 -21 -20 -20 -21 -20 -20 -20 -19 -19 -18 -18 -18 -19 -19 -19 -19 -18 -19 -18 -17 -17 -17 -17 -17 -17 -16 -16 -16 -15 -15 -14 -13 -14 -13
-17 -16 -18 -19 -20 -21 -21 -21 -21 -21 -21 -21 -20 -20 -21 -20 -20 -19 -19 -18 -18 -18 -19 -18 -18 -18 -19 -19 -20 -19 -18 -18 -18 -18 -18 -17 -17 -16 -16 -16 -15 -14 -13 -13
-17 -19 -20 -20 -19 -20 -21 -21 -20 -20 -20 -20 -20 -20 -20 -20 -19 -19 -19 -20 -20 -20 -20 -20 -19 -18 -18 -18 -19 -19 -19 -19 -19 -18 -18 -18 -18 -17 -17 -17 -16 -15 -14 -13
-20 -20 -20 -20 -20 -20 -21 -20 -20 -20 -20 -20 -21 -21 -20 -20 -20 -20 -20 -20 -19 -18 -19 -19 -19 -19 -19 -20 -20 -20 -20 -19 -18 -18 -18 -19 -19 -18 -18 -18 -17 -17 -16 -14
-20 -20 -20 -20 -20 -20 -20 -20 -20 -20 -21 -20 -20 -20 -20 -20 -20 -19 -20 -19 -20 -19 -19 -19 -19 -20 -19 -19 -19 -19 -19 -19 -18 -18 -19 -19 -19 -19 -19 -18 -18 -18 -17 -16
-20 -20 -20 -20 -20 -20 -20 -20 -20 -20 -20 -20 -20 -20 -20 -20 -20 -20 -20 -20 -20 -19 -19 -19 -19 -18 -18 -18 -18 -18 -18 -18 -18 -19 -19 -18 -18 -18 -19 -19 -17 -17 -17 -17
-20 -20 -20 -20 -20 -20 -20 -20 -20 -20 -20 -20 -20 -20 -20 -20 -20 -19 -19 -19 -19 -19 -19 -19 -19 -18 -18 -18 -17 -17 -17 -16 -17 -17 -17 -17 -17 -18 -19 -19 -19 -17 -16 -17
-20 -20 -21 -21 -20 -21 -20 -20 -20 -20 -20 -20 -20 -19 -19 -19 -19 -19 -19 -18 -18 -18 -18 -18 -17 -16 -17 -17 -17 -16 -16 -17 -16 -16 -16 -17 -17 -17 -16 -16 -16 -15 -15 -15
-21 -21 -20 -20 -21 -20 -21 -20 -20 -20 -20 -20 -20 -20 -19 -19 -18 -18 -17 -17 -17 -17 -17 -16 -16 -16 -16 -16 -16 -15 -15 -15 -16 -17 -16 -16 -17 -16 -15 -16 -15 -15 -14 -14
-21 -20 -20 -20 -21 -20 -21 -21 -21 -21 -21 -20 -20 -19 -19 -19 -18 -17 -16 -16 -16 -16 -15 -15 -16 -16 -15 -15 -15 -15 -16 -15 -14 -15 -16 -16 -16 -16 -16 -16 -15 -14 -13 -14
-20 -20 -20 -21 -21 -21 -21 -21 -21 -20 -20 -20 -19 -19 -19 -18 -18 -17 -16 -16 -16 -15 -15 -15 -15 -14 -14 -14 -15 -15 -14 -14 -14 -15 -16 -17 -17 -16 -15 -15 -14 -14 -14 -14
-20 -20 -20 -20 -21 -21 -21 -21 -20 -20 -20 -20 -19 -20 -20 -19 -18 -17 -16 -15 -15 -15 -15 -15 -14 -14 -14 -14 -14 -14 -14 -14 -14 -15 -16 -16 -16 -14 -13 -13 -12 -14 -14 -13

GFSCGP_500_temp_093.txt.gz
Temp
-11 -11 -12 -12 -12 -12 -12 -12 -12 -13 -13 -13 -13 -13 -13 -13 -13 -13 -13 -13 -13 -13 -13 -13 -13 -14 -14 -14 -13 -13 -13 -12 -12 -11 -11 -11 -11 -12 -12 -12 -12 -12 -12 -11
-12 -12 -13 -12 -12 -12 -12 -12 -12 -13 -13 -13 -13 -12 -13 -13 -13 -14 -13 -13 -13 -13 -13 -13 -13 -14 -14 -14 -15 -14 -14 -14 -13 -12 -11 -11 -11 -11 -11 -12 -12 -12 -12 -12
-12 -13 -13 -13 -13 -13 -13 -13 -13 -13 -13 -13 -13 -12 -12 -13 -13 -14 -14 -14 -14 -14 -14 -14 -14 -14 -14 -14 -14 -14 -14 -14 -14 -13 -13 -12 -13 -12 -12 -12 -12 -12 -12 -12
-12 -13 -13 -13 -13 -13 -13 -14 -14 -13 -13 -12 -13 -11 -12 -13 -14 -15 -15 -15 -15 -14 -14 -14 -14 -14 -14 -15 -15 -15 -14 -15 -14 -15 -15 -14 -13 -13 -13 -13 -13 -12 -12 -12
-13 -13 -13 -13 -14 -14 -13 -14 -14 -14 -13 -13 -12 -12 -11 -12 -13 -15 -15 -15 -15 -15 -15 -16 -15 -15 -15 -15 -15 -15 -15 -15 -15 -15 -15 -15 -14 -14 -14 -13 -13 -14 -13 -12
-13 -14 -14 -14 -14 -14 -14 -14 -14 -14 -14 -13 -13 -13 -13 -13 -13 -14 -15 -15 -16 -15 -15 -15 -15 -15 -15 -15 -15 -15 -16 -15 -16 -16 -16 -16 -15 -14 -14 -14 -13 -14 -14 -14
-13 -14 -14 -14 -14 -15 -15 -14 -14 -14 -14 -14 -14 -14 -13 -13 -15 -15 -15 -16 -16 -16 -16 -16 -16 -16 -16 -15 -16 -16 -17 -17 -17 -17 -17 -16 -15 -15 -14 -14 -13 -13 -13 -14
-13 -12 -13 -14 -14 -15 -15 -16 -16 -16 -15 -14 -14 -13 -13 -15 -16 -16 -16 -16 -17 -17 -17 -16 -16 -17 -17 -16 -18 -18 -18 -18 -18 -18 -18 -18 -16 -15 -14 -14 -13 -13 -13 -14
-14 -13 -13 -14 -15 -15 -16 -16 -16 -16 -16 -15 -14 -13 -14 -16 -17 -16 -16 -16 -17 -18 -17 -17 -16 -17 -17 -17 -17 -18 -18 -18 -18 -18 -18 -17 -16 -15 -14 -14 -14 -14 -14 -15
-15 -14 -14 -15 -16 -16 -17 -17 -16 -17 -17 -16 -15 -15 -15 -16 -17 -18 -18 -18 -18 -18 -18 -18 -17 -17 -18 -18 -18 -17 -17 -17 -18 -17 -17 -18 -16 -16 -15 -14 -15 -14 -14 -14
-16 -15 -15 -15 -15 -16 -17 -17 -17 -17 -17 -17 -17 -16 -17 -17 -18 -18 -18 -18 -18 -18 -18 -18 -18 -18 -19 -19 -18 -18 -17 -17 -17 -17 -18 -18 -17 -16 -15 -15 -15 -15 -15 -15
-15 -15 -15 -16 -16 -16 -17 -17 -17 -17 -17 -18 -18 -17 -18 -19 -20 -20 -20 -19 -20 -19 -19 -18 -19 -19 -19 -18 -18 -18 -18 -18 -18 -17 -17 -17 -17 -17 -16 -16 -16 -15 -15 -15
-15 -15 -15 -16 -16 -16 -16 -17 -17 -18 -18 -18 -19 -17 -19 -20 -20 -21 -21 -20 -20 -20 -19 -19 -18 -19 -19 -19 -19 -18 -18 -18 -18 -17 -17 -17 -17 -17 -17 -17 -17 -16 -16 -15
-16 -16 -16 -16 -16 -17 -17 -17 -19 -19 -18 -18 -19 -19 -20 -21 -21 -21 -22 -21 -20 -19 -19 -19 -19 -19 -19 -19 -19 -19 -18 -18 -17 -18 -17 -17 -17 -17 -17 -17 -17 -17 -17 -16
-16 -16 -16 -16 -17 -17 -17 -17 -18 -18 -19 -19 -19 -20 -20 -20 -20 -20 -21 -21 -20 -19 -19 -19 -19 -19 -19 -19 -18 -19 -19 -18 -18 -18 -18 -18 -17 -17 -17 -17 -17 -17 -17 -17
-16 -16 -16 -17 -18 -18 -17 -18 -19 -19 -19 -20 -20 -20 -20 -19 -20 -20 -20 -20 -20 -20 -20 -20 -20 -20 -20 -19 -18 -18 -19 -19 -19 -19 -19 -18 -18 -18 -17 -17 -17 -17 -16 -17
-16 -17 -17 -18 -18 -18 -19 -20 -20 -20 -20 -20 -20 -20 -20 -20 -20 -20 -20 -20 -20 -20 -20 -20 -20 -19 -19 -19 -18 -19 -18 -18 -18 -18 -17 -17 -17 -17 -17 -17 -17 -17 -16 -17
-17 -17 -18 -19 -19 -20 -20 -20 -20 -20 -20 -21 -20 -20 -20 -20 -20 -20 -21 -20 -20 -20 -20 -20 -20 -20 -19 -19 -18 -18 -18 -18 -18 -18 -18 -18 -18 -17 -17 -17 -17 -17 -18 -18
-19 -19 -19 -20 -20 -20 -20 -21 -21 -20 -20 -20 -20 -20 -20 -20 -20 -21 -21 -20 -20 -20 -20 -20 -20 -19 -19 -19 -19 -19 -18 -19 -19 -18 -18 -18 -18 -18 -18 -17 -17 -17 -17 -17
-20 -21 -21 -21 -20 -20 -20 -21 -20 -20 -20 -20 -20 -20 -20 -20 -20 -20 -20 -21 -21 -20 -20 -20 -20 -19 -19 -19 -19 -18 -18 -18 -18 -18 -18 -18 -18 -18 -18 -18 -18 -18 -18 -17
-20 -21 -21 -21 -21 -20 -21 -20 -20 -20 -21 -21 -20 -20 -20 -19 -19 -19 -19 -20 -20 -20 -20 -20 -19 -19 -18 -18 -18 -18 -18 -18 -18 -18 -18 -18 -18 -18 -18 -18 -18 -18 -18 -18
-21 -21 -21 -21 -21 -20 -21 -21 -21 -21 -20 -20 -20 -20 -19 -19 -19 -18 -18 -18 -18 -18 -18 -19 -18 -18 -18 -18 -17 -17 -16 -17 -17 -17 -17 -17 -18 -18 -18 -18 -18 -18 -18 -18
-21 -21 -21 -21 -21 -21 -21 -21 -21 -21 -21 -21 -20 -19 -19 -19 -19 -18 -17 -17 -17 -17 -17 -17 -17 -17 -17 -17 -16 -16 -16 -16 -16 -16 -16 -16 -17 -17 -17 -17 -17 -17 -17 -16
-21 -21 -21 -21 -21 -21 -21 -21 -21 -22 -21 -20 -20 -19 -19 -18 -18 -18 -18 -17 -17 -17 -16 -16 -16 -16 -16 -15 -15 -15 -15 -15 -16 -15 -16 -16 -16 -16 -16 -16 -17 -17 -17 -16
-21 -21 -21 -21 -21 -21 -21 -21 -21 -22 -21 -20 -20 -20 -20 -19 -20 -19 -18 -18 -17 -16 -16 -15 -15 -15 -15 -15 -15 -15 -15 -16 -16 -15 -15 -15 -16 -16 -16 -16 -16 -16 -15 -15
-21 -21 -21 -21 -21 -21 -21 -21 -21 -21 -20 -19 -20 -20 -21 -20 -20 -20 -19 -18 -17 -16 -16 -15 -15 -15 -15 -15 -14 -16 -16 -15 -15 -15 -15 -15 -16 -17 -17 -17 -17 -17 -16 -15

GFSCGP_500_temp_096.txt.gz
Temp
-11 -11 -12 -12 -11 -11 -11 -11 -11 -11 -12 -11 -11 -11 -12 -12 -12 -12 -12 -12 -12 -13 -13 -13 -13 -13 -13 -13 -13 -13 -13 -12 -12 -13 -13 -12 -11 -12 -12 -13 -13 -13 -11 -11
-11 -12 -12 -11 -11 -11 -11 -11 -12 -12 -12 -12 -12 -12 -12 -12 -12 -12 -12 -12 -13 -13 -13 -13 -13 -13 -13 -13 -14 -14 -14 -14 -14 -14 -13 -13 -12 -11 -12 -13 -13 -13 -13 -12
-11 -12 -12 -12 -12 -12 -12 -12 -12 -12 -12 -12 -12 -11 -11 -12 -12 -12 -13 -13 -13 -13 -12 -13 -13 -13 -13 -13 -14 -14 -14 -15 -15 -15 -14 -14 -13 -13 -12 -12 -13 -13 -13 -13
-12 -12 -12 -12 -12 -13 -12 -13 -12 -12 -12 -12 -12 -11 -12 -12 -12 -13 -13 -13 -13 -12 -12 -12 -13 -13 -13 -13 -14 -14 -14 -14 -15 -15 -15 -15 -14 -13 -13 -13 -13 -13 -14 -13
-13 -13 -13 -13 -13 -13 -13 -13 -13 -13 -13 -12 -13 -12 -12 -12 -13 -13 -14 -14 -14 -14 -13 -13 -13 -13 -13 -13 -14 -14 -14 -14 -14 -15 -15 -15 -15 -15 -14 -14 -14 -14 -14 -14
-13 -13 -13 -14 -14 -14 -14 -13 -13 -13 -13 -13 -13 -14 -13 -13 -13 -13 -14 -15 -14 -14 -14 -14 -14 -14 -14 -14 -15 -15 -14 -14 -14 -15 -16 -16 -16 -15 -15 -16 -15 -14 -14 -14
-14 -14 -15 -15 -15 -15 -15 -15 -14 -14 -14 -13 -14 -14 -13 -14 -14 -15 -14 -14 -15 -15 -15 -15 -15 -15 -16 -16 -15 -15 -15 -15 -15 -16 -17 -17 -17 -17 -17 -17 -16 -15 -14 -14
-14 -14 -15 -15 -15 -15 -15 -15 -16 -15 -15 -14 -15 -13 -13 -14 -15 -15 -15 -15 -15 -16 -15 -15 -16 -16 -16 -17 -16 -16 -16 -16 -16 -17 -18 -18 -18 -18 -18 -18 -17 -16 -15 -14
-14 -13 -14 -15 -15 -15 -15 -15 -15 -16 -15 -14 -14 -14 -14 -14 -15 -15 -15 -15 -16 -16 -16 -16 -16 -16 -17 -17 -17 -17 -16 -16 -17 -18 -18 -18 -18 -18 -18 -18 -17 -16 -15 -15
-15 -14 -14 -16 -16 -16 -16 -16 -16 -16 -16 -15 -14 -14 -14 -15 -15 -16 -16 -16 -17 -17 -17 -18 -17 -17 -17 -17 -17 -17 -17 -17 -18 -18 -17 -18 -18 -18 -17 -17 -17 -16 -15 -15
-15 -15 -15 -16 -16 -16 -16 -16 -16 -17 -17 -17 -16 -14 -16 -16 -16 -16 -16 -17 -17 -17 -18 -18 -18 -18 -18 -18 -17 -18 -18 -18 -18 -18 -18 -18 -18 -18 -18 -17 -16 -16 -16 -16
-15 -15 -14 -15 -16 -16 -16 -16 -17 -17 -17 -17 -17 -15 -16 -17 -17 -17 -17 -18 -18 -19 -20 -20 -20 -19 -19 -19 -18 -18 -19 -18 -18 -18 -18 -18 -18 -17 -18 -17 -17 -17 -16 -16
-16 -15 -15 -15 -15 -16 -16 -16 -16 -17 -18 -17 -17 -15 -17 -18 -18 -19 -18 -18 -19 -18 -19 -20 -21 -20 -19 -19 -19 -19 -19 -19 -18 -18 -18 -17 -17 -18 -18 -18 -18 -17 -16 -16
-16 -16 -16 -16 -16 -16 -16 -17 -18 -18 -18 -18 -18 -17 -18 -18 -18 -19 -20 -19 -19 -19 -20 -21 -21 -20 -20 -19 -20 -19 -19 -19 -19 -18 -18 -18 -18 -18 -18 -18 -18 -18 -17 -16
-17 -16 -16 -16 -16 -17 -17 -17 -18 -18 -18 -18 -18 -18 -18 -19 -19 -19 -19 -19 -19 -20 -20 -20 -20 -20 -20 -19 -19 -19 -19 -19 -19 -18 -18 -18 -18 -18 -18 -18 -18 -18 -18 -18
-17 -17 -16 -16 -17 -17 -17 -18 -18 -19 -19 -19 -20 -19 -20 -20 -19 -19 -19 -19 -20 -20 -20 -19 -20 -20 -19 -20 -19 -19 -19 -20 -19 -18 -18 -18 -17 -17 -18 -18 -18 -18 -18 -18
-17 -17 -17 -18 -17 -18 -18 -19 -19 -20 -20 -20 -20 -20 -20 -20 -20 -20 -20 -20 -19 -20 -20 -20 -19 -20 -20 -20 -20 -19 -19 -19 -19 -18 -18 -18 -18 -18 -18 -18 -18 -18 -18 -18
-17 -17 -18 -18 -19 -19 -19 -19 -20 -20 -20 -20 -20 -20 -20 -20 -20 -21 -20 -20 -20 -20 -20 -20 -19 -19 -19 -19 -19 -19 -19 -19 -19 -19 -18 -18 -18 -18 -18 -18 -18 -18 -17 -17
-18 -18 -19 -19 -20 -20 -20 -20 -21 -20 -20 -21 -21 -21 -21 -21 -20 -21 -20 -20 -20 -20 -19 -19 -19 -19 -19 -19 -19 -19 -19 -19 -19 -18 -18 -19 -18 -18 -18 -18 -17 -17 -17 -17
-20 -20 -20 -21 -21 -20 -21 -21 -21 -21 -20 -21 -21 -20 -20 -20 -19 -19 -20 -20 -20 -19 -19 -19 -19 -19 -19 -19 -19 -19 -19 -19 -18 -18 -18 -18 -19 -19 -19 -18 -18 -18 -17 -17
-20 -20 -21 -21 -21 -21 -21 -21 -21 -21 -20 -20 -20 -20 -20 -20 -19 -19 -19 -19 -19 -18 -18 -18 -18 -17 -17 -18 -18 -18 -18 -18 -18 -18 -18 -18 -18 -18 -18 -18 -18 -18 -18 -17
-20 -21 -21 -21 -21 -21 -21 -21 -21 -21 -21 -21 -21 -21 -20 -20 -19 -18 -18 -18 -17 -18 -18 -18 -18 -18 -17 -17 -17 -17 -17 -17 -17 -17 -17 -17 -17 -18 -17 -17 -17 -17 -18 -18
-21 -21 -21 -21 -21 -21 -21 -21 -20 -21 -21 -21 -21 -20 -20 -19 -19 -19 -19 -19 -18 -17 -17 -17 -16 -17 -17 -17 -17 -16 -17 -16 -16 -16 -16 -16 -16 -16 -17 -17 -17 -17 -17 -17
-21 -21 -21 -21 -21 -21 -21 -21 -21 -21 -21 -21 -20 -19 -19 -19 -20 -19 -19 -19 -19 -18 -18 -16 -16 -16 -16 -16 -16 -16 -16 -16 -16 -15 -16 -16 -16 -16 -16 -16 -16 -16 -17 -17
-21 -22 -21 -21 -21 -21 -21 -21 -21 -21 -22 -20 -20 -20 -20 -20 -21 -20 -20 -19 -19 -18 -18 -16 -16 -15 -15 -15 -15 -15 -15 -15 -15 -16 -16 -16 -16 -16 -16 -16 -17 -16 -16 -17
-22 -21 -21 -21 -21 -21 -21 -21 -21 -21 -20 -20 -20 -20 -20 -20 -20 -20 -19 -19 -18 -18 -16 -16 -15 -15 -15 -15 -15 -15 -16 -16 -15 -15 -15 -15 -15 -16 -16 -16 -17 -16 -16 -16

GFSCGP_500_temp_102.txt.gz
Temp
-11 -11 -12 -12 -11 -11 -11 -11 -11 -11 -11 -10 -11 -11 -10 -11 -10 -11 -11 -11 -11 -12 -12 -12 -12 -11 -11 -12 -12 -12 -13 -13 -13 -13 -12 -12 -12 -13 -13 -13 -13 -13 -13 -13
-11 -11 -11 -11 -11 -11 -11 -11 -11 -11 -11 -10 -10 -10 -10 -10 -10 -10 -10 -11 -11 -11 -11 -12 -12 -12 -12 -12 -12 -12 -12 -13 -13 -14 -14 -13 -13 -12 -13 -13 -13 -13 -13 -13
-11 -11 -11 -11 -11 -11 -11 -11 -11 -11 -11 -10 -10 -10 -11 -11 -11 -11 -11 -11 -11 -11 -11 -11 -11 -11 -11 -11 -12 -12 -12 -13 -13 -13 -13 -13 -13 -13 -12 -12 -13 -13 -14 -14
-11 -12 -11 -11 -11 -11 -11 -11 -11 -11 -11 -11 -12 -10 -11 -11 -11 -11 -12 -11 -11 -11 -11 -11 -11 -11 -11 -11 -12 -12 -12 -12 -13 -13 -13 -13 -13 -13 -13 -14 -13 -13 -13 -13
-12 -12 -12 -12 -12 -12 -12 -12 -12 -12 -12 -12 -12 -12 -11 -11 -12 -12 -12 -12 -12 -11 -11 -11 -11 -11 -11 -12 -12 -12 -12 -13 -13 -13 -13 -13 -13 -14 -14 -14 -14 -14 -14 -14
-13 -13 -13 -13 -13 -13 -13 -13 -13 -13 -13 -12 -12 -12 -12 -12 -12 -12 -12 -13 -12 -12 -12 -12 -12 -12 -12 -12 -12 -12 -12 -12 -13 -13 -13 -13 -13 -14 -14 -15 -15 -15 -15 -15
-14 -14 -14 -14 -14 -14 -14 -14 -13 -14 -16 -14 -15 -14 -12 -12 -12 -12 -13 -13 -12 -13 -13 -13 -13 -13 -13 -12 -12 -13 -13 -13 -13 -13 -13 -13 -14 -14 -14 -14 -15 -16 -16 -16
-15 -15 -15 -14 -15 -15 -15 -16 -15 -15 -16 -16 -16 -14 -15 -13 -11 -12 -12 -13 -13 -13 -13 -13 -13 -13 -13 -13 -13 -13 -13 -13 -13 -13 -13 -13 -14 -14 -14 -14 -15 -16 -16 -16
-15 -15 -15 -15 -15 -15 -15 -15 -15 -15 -15 -14 -14 -13 -13 -13 -12 -12 -13 -14 -14 -14 -14 -13 -13 -13 -14 -14 -14 -14 -14 -14 -15 -15 -14 -14 -14 -14 -15 -15 -15 -15 -16 -17
-16 -15 -16 -15 -15 -15 -15 -15 -15 -15 -14 -14 -13 -15 -16 -15 -14 -13 -14 -14 -14 -14 -14 -14 -14 -14 -14 -14 -14 -14 -15 -15 -15 -15 -15 -15 -15 -15 -15 -16 -16 -16 -16 -18
-16 -16 -15 -16 -15 -16 -16 -16 -15 -16 -15 -15 -14 -15 -16 -16 -16 -16 -16 -15 -15 -14 -14 -15 -14 -14 -14 -14 -14 -14 -14 -15 -15 -16 -16 -16 -17 -17 -16 -16 -17 -17 -17 -17
-16 -15 -15 -15 -16 -16 -16 -16 -16 -16 -15 -15 -15 -13 -16 -16 -16 -16 -16 -16 -16 -16 -15 -15 -15 -15 -15 -15 -15 -15 -16 -16 -16 -16 -16 -17 -18 -18 -17 -18 -17 -17 -17 -17
-16 -16 -16 -16 -16 -17 -17 -17 -17 -17 -16 -15 -17 -15 -17 -17 -18 -17 -16 -16 -16 -16 -16 -16 -16 -16 -17 -17 -17 -17 -17 -17 -17 -18 -18 -18 -19 -19 -18 -18 -18 -18 -17 -17
-17 -17 -17 -17 -17 -17 -16 -17 -17 -17 -16 -16 -16 -16 -17 -18 -17 -17 -18 -18 -18 -17 -17 -17 -18 -18 -18 -18 -18 -18 -18 -18 -18 -18 -19 -20 -19 -18 -18 -19 -18 -18 -17 -17
-18 -17 -18 -17 -18 -18 -17 -17 -17 -17 -17 -16 -16 -17 -18 -18 -18 -18 -18 -19 -19 -18 -19 -19 -19 -19 -19 -18 -18 -18 -18 -19 -19 -19 -19 -19 -19 -18 -17 -18 -18 -18 -18 -18
-19 -19 -19 -18 -18 -18 -17 -17 -17 -17 -17 -17 -18 -18 -18 -18 -19 -19 -20 -19 -19 -19 -20 -20 -20 -19 -19 -19 -19 -19 -18 -19 -19 -19 -19 -19 -19 -19 -18 -18 -17 -17 -18 -18
-20 -19 -19 -18 -18 -18 -18 -18 -17 -18 -18 -18 -19 -19 -19 -19 -20 -20 -20 -20 -20 -20 -20 -20 -19 -19 -19 -19 -19 -19 -19 -19 -19 -19 -19 -19 -19 -19 -19 -19 -19 -19 -19 -19
-19 -19 -19 -19 -18 -18 -18 -19 -19 -20 -19 -19 -19 -20 -20 -20 -20 -20 -20 -20 -20 -20 -19 -19 -19 -19 -19 -18 -18 -18 -18 -19 -19 -19 -19 -19 -19 -18 -18 -19 -19 -19 -18 -18
-19 -19 -19 -19 -20 -20 -20 -20 -20 -20 -20 -20 -20 -20 -20 -20 -20 -20 -21 -20 -20 -19 -19 -18 -18 -18 -18 -18 -18 -17 -17 -18 -18 -18 -19 -19 -18 -18 -18 -18 -18 -18 -18 -18
-19 -20 -20 -20 -20 -20 -20 -20 -20 -20 -20 -21 -21 -21 -20 -20 -20 -20 -20 -20 -20 -20 -19 -19 -18 -18 -17 -18 -18 -17 -17 -17 -17 -18 -18 -18 -18 -18 -18 -18 -18 -18 -18 -18
-20 -20 -20 -21 -21 -20 -20 -21 -21 -21 -20 -20 -20 -20 -20 -19 -20 -19 -19 -19 -20 -20 -19 -19 -18 -18 -18 -18 -17 -16 -16 -16 -17 -17 -17 -17 -18 -18 -18 -18 -18 -18 -18 -18
-21 -21 -21 -21 -21 -21 -21 -21 -21 -20 -20 -20 -20 -20 -20 -19 -19 -19 -20 -20 -20 -20 -20 -19 -19 -18 -17 -17 -17 -16 -16 -16 -16 -16 -17 -17 -17 -18 -18 -18 -18 -18 -18 -19
-21 -21 -21 -21 -21 -21 -21 -21 -20 -20 -20 -21 -21 -20 -19 -19 -19 -19 -19 -19 -19 -19 -19 -19 -19 -18 -18 -17 -16 -16 -16 -16 -16 -16 -16 -16 -17 -17 -17 -17 -18 -18 -18 -19
-21 -21 -21 -21 -21 -21 -21 -20 -21 -20 -21 -21 -21 -20 -19 -18 -18 -18 -19 -18 -18 -19 -19 -19 -19 -18 -18 -16 -16 -16 -16 -16 -15 -16 -16 -16 -16 -17 -17 -17 -17 -17 -17 -18
-21 -21 -21 -21 -21 -21 -21 -21 -21 -21 -21 -21 -21 -19 -19 -19 -19 -18 -18 -17 -17 -17 -18 -18 -17 -17 -17 -16 -16 -15 -15 -15 -16 -15 -16 -16 -17 -16 -16 -16 -17 -17 -17 -17
-21 -21 -21 -21 -21 -21 -21 -21 -21 -21 -21 -21 -20 -19 -19 -18 -18 -17 -17 -17 -17 -17 -17 -17 -16 -16 -16 -16 -16 -15 -17 -16 -16 -15 -16 -16 -16 -16 -16 -17 -17 -17 -17 -17

GFSCGP_500_temp_105.txt.gz
Temp
-11 -11 -11 -12 -12 -11 -11 -11 -11 -12 -11 -11 -10 -11 -11 -11 -11 -10 -10 -11 -10 -10 -10 -10 -10 -10 -10 -10 -10 -11 -12 -12 -12 -12 -11 -11 -11 -11 -12 -13 -13 -13 -14 -14
-11 -11 -12 -12 -11 -11 -11 -11 -11 -12 -12 -11 -11 -11 -11 -11 -11 -11 -11 -11 -10 -11 -11 -11 -10 -10 -9 -10 -11 -11 -11 -11 -12 -12 -12 -12 -11 -11 -12 -13 -12 -12 -12 -14
-11 -12 -11 -11 -11 -11 -11 -11 -11 -11 -11 -11 -11 -10 -11 -11 -11 -11 -11 -11 -11 -11 -11 -11 -10 -10 -10 -9 -10 -11 -11 -11 -12 -12 -12 -12 -12 -12 -12 -12 -12 -12 -13 -13
-12 -12 -11 -12 -12 -11 -11 -12 -12 -11 -11 -11 -12 -12 -12 -11 -11 -11 -11 -11 -11 -11 -11 -11 -10 -10 -10 -10 -10 -11 -11 -11 -11 -12 -12 -12 -13 -13 -13 -13 -13 -13 -13 -13
-13 -12 -12 -12 -12 -13 -12 -12 -12 -12 -12 -12 -12 -12 -12 -12 -12 -12 -11 -11 -11 -11 -11 -10 -11 -11 -11 -11 -11 -11 -11 -11 -11 -11 -11 -12 -12 -13 -13 -13 -14 -14 -14 -14
-13 -13 -12 -13 -13 -12 -13 -13 -13 -13 -13 -12 -12 -12 -13 -14 -14 -14 -13 -12 -11 -11 -10 -11 -11 -11 -11 -11 -11 -11 -11 -12 -12 -12 -12 -12 -12 -12 -12 -13 -13 -14 -14 -13
-14 -14 -14 -14 -14 -14 -13 -14 -14 -14 -15 -13 -14 -14 -14 -14 -14 -13 -13 -13 -12 -11 -12 -12 -12 -12 -11 -11 -11 -11 -11 -11 -12 -12 -12 -12 -13 -13 -13 -13 -14 -14 -14 -12
-14 -15 -15 -15 -14 -14 -15 -16 -16 -15 -15 -15 -14 -14 -14 -14 -14 -14 -13 -13 -14 -13 -12 -12 -13 -12 -12 -12 -12 -12 -12 -12 -12 -12 -13 -13 -13 -13 -13 -13 -14 -14 -14 -12
-15 -15 -15 -15 -15 -15 -14 -15 -16 -16 -14 -14 -14 -14 -15 -15 -15 -15 -14 -12 -13 -13 -13 -13 -13 -13 -13 -13 -13 -13 -12 -13 -13 -13 -13 -13 -13 -13 -13 -14 -14 -14 -14 -13
-15 -15 -15 -15 -15 -15 -15 -15 -15 -15 -15 -15 -16 -15 -15 -15 -15 -15 -14 -15 -14 -13 -14 -14 -14 -14 -13 -13 -13 -13 -13 -13 -13 -13 -14 -14 -14 -14 -14 -14 -14 -15 -15 -14
-15 -14 -14 -15 -15 -15 -16 -16 -15 -16 -15 -15 -15 -15 -15 -15 -15 -16 -16 -16 -16 -15 -14 -15 -15 -15 -14 -14 -14 -14 -14 -13 -15 -14 -14 -15 -14 -14 -14 -14 -15 -15 -15 -15
-15 -14 -14 -14 -15 -16 -16 -16 -16 -16 -16 -16 -16 -15 -16 -16 -16 -16 -17 -17 -16 -15 -16 -15 -15 -15 -15 -15 -15 -15 -14 -14 -14 -14 -14 -15 -15 -15 -15 -15 -15 -16 -15 -16
-15 -15 -15 -15 -16 -16 -17 -17 -17 -17 -16 -15 -16 -15 -16 -17 -17 -17 -17 -17 -16 -15 -16 -16 -16 -16 -16 -16 -15 -15 -16 -15 -15 -16 -16 -16 -15 -15 -15 -15 -16 -17 -17 -17
-16 -16 -16 -16 -17 -17 -17 -18 -17 -17 -17 -17 -16 -16 -16 -17 -17 -17 -17 -17 -16 -17 -17 -17 -16 -17 -16 -16 -16 -16 -17 -17 -17 -18 -17 -17 -17 -16 -16 -16 -16 -16 -18 -18
-17 -17 -18 -18 -18 -18 -18 -18 -18 -18 -17 -17 -16 -17 -17 -17 -17 -18 -18 -17 -17 -17 -18 -18 -17 -17 -18 -18 -18 -18 -18 -18 -18 -18 -18 -18 -17 -18 -18 -18 -17 -17 -17 -18
-18 -18 -19 -18 -19 -19 -19 -18 -18 -18 -17 -17 -17 -16 -17 -18 -17 -17 -17 -18 -18 -18 -18 -18 -18 -18 -18 -18 -18 -18 -19 -18 -18 -18 -18 -18 -18 -18 -19 -19 -19 -18 -18 -17
-19 -19 -20 -19 -19 -19 -18 -19 -18 -18 -18 -18 -19 -20 -20 -19 -19 -18 -19 -19 -19 -19 -19 -19 -19 -19 -18 -18 -18 -18 -18 -19 -19 -18 -18 -18 -18 -18 -19 -19 -19 -19 -18 -17
-20 -20 -20 -19 -19 -19 -19 -19 -19 -19 -19 -19 -19 -18 -19 -18 -18 -19 -20 -19 -19 -19 -19 -18 -18 -18 -18 -18 -18 -18 -18 -18 -18 -18 -18 -18 -18 -19 -19 -19 -19 -19 -18 -18
-19 -20 -20 -19 -20 -19 -19 -20 -20 -19 -20 -19 -19 -20 -19 -19 -19 -19 -20 -19 -19 -19 -19 -18 -18 -18 -17 -17 -17 -17 -17 -17 -17 -17 -17 -18 -18 -18 -19 -19 -19 -18 -18 -18
-20 -20 -20 -20 -20 -20 -19 -19 -19 -20 -20 -19 -20 -20 -20 -20 -19 -19 -19 -19 -19 -19 -19 -18 -18 -19 -18 -18 -18 -17 -17 -17 -16 -17 -17 -16 -17 -17 -18 -18 -18 -18 -18 -18
-20 -20 -20 -20 -20 -20 -20 -20 -20 -20 -20 -20 -20 -20 -20 -19 -19 -18 -18 -18 -18 -18 -18 -18 -19 -19 -20 -19 -19 -18 -17 -17 -17 -17 -16 -16 -16 -17 -17 -18 -18 -18 -18 -17
-20 -21 -20 -21 -20 -20 -20 -20 -20 -20 -20 -20 -20 -20 -19 -19 -19 -18 -19 -18 -18 -18 -18 -19 -19 -19 -19 -19 -19 -17 -16 -17 -17 -16 -16 -16 -16 -17 -17 -17 -17 -18 -17 -17
-20 -21 -20 -21 -20 -20 -20 -20 -20 -20 -20 -20 -20 -20 -20 -19 -19 -18 -18 -17 -18 -17 -17 -17 -18 -18 -19 -19 -18 -17 -16 -16 -16 -16 -16 -16 -16 -16 -17 -17 -17 -17 -18 -18
-21 -20 -21 -21 -21 -21 -21 -21 -20 -20 -20 -20 -20 -20 -19 -18 -18 -17 -16 -17 -17 -16 -16 -17 -17 -17 -17 -17 -17 -16 -16 -16 -16 -16 -16 -16 -16 -16 -16 -16 -16 -16 -17 -17
-21 -20 -21 -21 -21 -21 -21 -20 -20 -20 -20 -20 -20 -19 -19 -18 -17 -16 -17 -17 -16 -16 -16 -16 -16 -16 -16 -16 -16 -15 -15 -15 -15 -16 -16 -16 -16 -16 -15 -16 -16 -16 -16 -17
-21 -21 -21 -22 -22 -21 -21 -21 -20 -20 -20 -20 -20 -19 -18 -17 -16 -16 -16 -16 -16 -16 -15 -16 -16 -15 -16 -16 -16 -16 -15 -16 -16 -17 -16 -16 -15 -16 -16 -16 -17 -17 -17 -18

GFSCGP_500_temp_108.txt.gz
Temp
-11 -11 -11 -11 -11 -11 -11 -13 -13 -13 -13 -14 -12 -10 -10 -10 -10 -10 -9 -10 -10 -10 -10 -10 -10 -10 -9 -9 -10 -10 -10 -10 -10 -10 -10 -10 -11 -10 -10 -11 -11 -11 -12 -12
-12 -11 -12 -12 -12 -12 -12 -12 -12 -12 -12 -12 -12 -11 -11 -10 -11 -11 -11 -11 -10 -10 -10 -10 -11 -10 -10 -9 -9 -10 -10 -11 -11 -10 -11 -11 -11 -12 -11 -11 -11 -11 -11 -12
-12 -12 -13 -13 -13 -13 -13 -12 -12 -12 -12 -12 -13 -11 -11 -11 -11 -11 -11 -11 -10 -11 -11 -11 -10 -10 -10 -9 -8 -10 -10 -10 -10 -11 -11 -11 -12 -11 -11 -12 -11 -12 -11 -11
-12 -13 -14 -15 -13 -13 -13 -13 -12 -12 -13 -12 -13 -12 -12 -13 -13 -11 -10 -10 -10 -11 -11 -11 -11 -11 -9 -9 -9 -10 -10 -10 -10 -10 -11 -11 -11 -11 -12 -12 -12 -12 -11 -11
-13 -13 -14 -14 -13 -14 -15 -14 -14 -14 -13 -12 -12 -12 -12 -12 -12 -12 -13 -13 -12 -11 -11 -11 -11 -10 -9 -10 -11 -10 -10 -10 -10 -11 -11 -11 -11 -11 -11 -12 -12 -12 -10 -10
-12 -12 -14 -16 -14 -14 -14 -13 -13 -13 -13 -12 -12 -12 -12 -13 -13 -14 -14 -14 -14 -13 -10 -10 -10 -10 -11 -11 -10 -10 -10 -10 -10 -11 -11 -11 -11 -12 -12 -12 -12 -12 -12 -11
-14 -13 -15 -14 -14 -14 -15 -14 -14 -14 -15 -13 -14 -14 -13 -14 -14 -13 -14 -14 -13 -13 -12 -11 -11 -12 -12 -11 -11 -10 -10 -10 -10 -10 -11 -12 -12 -12 -12 -12 -12 -12 -11 -12
-14 -14 -15 -16 -16 -15 -16 -16 -16 -16 -14 -14 -15 -13 -13 -13 -13 -13 -13 -14 -13 -13 -13 -12 -12 -12 -12 -11 -11 -10 -10 -10 -10 -11 -11 -11 -11 -12 -12 -13 -13 -12 -12 -12
-15 -15 -15 -15 -15 -15 -15 -15 -15 -15 -14 -14 -14 -13 -14 -14 -13 -13 -14 -14 -14 -14 -12 -11 -13 -13 -12 -12 -11 -11 -11 -11 -11 -11 -11 -11 -11 -12 -12 -12 -13 -12 -13 -13
-14 -14 -15 -15 -15 -15 -15 -15 -15 -15 -15 -15 -15 -15 -15 -14 -14 -14 -14 -14 -14 -14 -13 -13 -14 -13 -13 -14 -13 -12 -12 -12 -12 -12 -12 -12 -12 -12 -12 -12 -13 -13 -13 -13
-14 -14 -14 -14 -14 -15 -15 -16 -16 -16 -15 -15 -15 -15 -15 -14 -13 -14 -14 -14 -14 -14 -15 -15 -15 -14 -13 -14 -14 -14 -13 -12 -12 -12 -13 -14 -13 -13 -13 -13 -14 -13 -13 -13
-15 -14 -14 -14 -15 -15 -15 -15 -16 -16 -15 -15 -15 -15 -16 -15 -15 -15 -15 -15 -15 -15 -15 -15 -16 -15 -15 -15 -15 -15 -14 -13 -14 -14 -13 -13 -14 -14 -15 -14 -13 -14 -14 -14
-15 -14 -14 -14 -15 -16 -15 -15 -16 -17 -16 -15 -16 -14 -16 -16 -16 -16 -16 -16 -16 -15 -15 -15 -15 -16 -15 -15 -15 -16 -15 -15 -14 -14 -14 -14 -14 -14 -14 -15 -14 -14 -14 -14
-15 -15 -16 -15 -15 -16 -16 -17 -16 -17 -16 -16 -16 -16 -16 -17 -17 -16 -16 -16 -16 -16 -16 -15 -16 -17 -16 -15 -16 -15 -16 -16 -16 -16 -16 -15 -15 -16 -16 -16 -16 -15 -14 -15
-16 -16 -17 -16 -17 -17 -17 -17 -17 -17 -17 -18 -17 -18 -17 -17 -17 -18 -16 -16 -16 -16 -17 -17 -17 -17 -16 -17 -16 -17 -17 -17 -17 -17 -17 -17 -18 -18 -17 -18 -17 -16 -16 -16
-16 -17 -17 -17 -18 -18 -18 -18 -18 -18 -18 -18 -18 -18 -18 -18 -18 -17 -17 -18 -17 -17 -17 -17 -17 -17 -17 -17 -17 -17 -17 -18 -18 -18 -18 -18 -18 -18 -18 -18 -18 -17 -17 -16
-18 -18 -19 -18 -19 -19 -18 -19 -19 -18 -18 -19 -19 -19 -19 -19 -18 -17 -18 -18 -19 -18 -17 -18 -18 -18 -17 -17 -18 -17 -17 -17 -18 -18 -18 -18 -18 -18 -18 -18 -18 -17 -17 -18
-19 -19 -19 -19 -19 -19 -19 -19 -19 -19 -18 -19 -19 -19 -19 -19 -18 -18 -20 -19 -17 -18 -18 -17 -17 -17 -18 -18 -18 -18 -19 -18 -18 -18 -17 -17 -18 -18 -18 -17 -18 -18 -18 -18
-19 -19 -19 -19 -19 -19 -19 -19 -19 -19 -19 -18 -19 -20 -19 -19 -18 -19 -19 -19 -18 -17 -17 -17 -17 -17 -17 -17 -18 -18 -18 -19 -19 -18 -18 -17 -17 -17 -17 -17 -17 -17 -17 -18
-19 -20 -19 -20 -20 -19 -19 -19 -19 -19 -19 -18 -19 -20 -19 -19 -19 -19 -19 -19 -19 -19 -18 -18 -17 -17 -17 -18 -18 -18 -19 -19 -19 -19 -18 -18 -17 -17 -17 -17 -17 -17 -17 -17
-19 -20 -20 -20 -20 -19 -19 -19 -19 -19 -19 -20 -20 -20 -20 -20 -20 -19 -19 -19 -18 -18 -17 -17 -16 -16 -16 -17 -18 -18 -19 -19 -19 -18 -17 -17 -17 -17 -17 -16 -16 -16 -17 -17
-20 -20 -20 -20 -20 -20 -19 -20 -20 -19 -20 -20 -20 -20 -20 -20 -20 -19 -19 -18 -17 -17 -16 -16 -16 -16 -16 -16 -17 -17 -18 -19 -18 -17 -17 -17 -16 -16 -16 -16 -16 -16 -17 -17
-20 -20 -20 -20 -20 -20 -20 -20 -20 -20 -20 -20 -20 -20 -20 -20 -19 -18 -18 -17 -16 -16 -16 -16 -15 -16 -16 -16 -16 -16 -17 -17 -17 -17 -16 -16 -16 -16 -16 -16 -16 -17 -17 -16
-20 -21 -20 -20 -20 -20 -20 -20 -20 -19 -20 -21 -20 -20 -19 -19 -18 -17 -17 -16 -15 -16 -15 -15 -15 -16 -15 -15 -16 -16 -16 -16 -16 -16 -16 -16 -16 -16 -16 -16 -16 -16 -16 -16
-20 -20 -20 -20 -21 -21 -21 -21 -21 -20 -20 -20 -20 -19 -19 -18 -18 -17 -16 -16 -16 -15 -15 -15 -15 -15 -15 -15 -15 -15 -15 -15 -15 -15 -16 -16 -15 -15 -15 -16 -16 -16 -16 -16
-20 -20 -21 -21 -21 -21 -21 -21 -20 -20 -20 -20 -19 -20 -19 -19 -17 -16 -16 -16 -16 -15 -15 -15 -14 -14 -14 -14 -14 -14 -14 -14 -14 -15 -15 -15 -16 -15 -15 -16 -16 -17 -17 -16

GFSCGP_500_temp_111.txt.gz
Temp
-11 -11 -11 -11 -11 -11 -11 -11 -12 -12 -13 -14 -13 -13 -13 -10 -11 -10 -9 -9 -9 -9 -9 -9 -9 -9 -10 -9 -9 -9 -9 -11 -9 -9 -9 -10 -10 -11 -10 -9 -9 -9 -9 -10
-11 -11 -11 -12 -12 -12 -12 -13 -12 -12 -13 -13 -13 -12 -12 -12 -10 -10 -11 -10 -10 -10 -9 -9 -10 -9 -9 -9 -9 -9 -10 -9 -10 -10 -10 -10 -10 -10 -10 -10 -10 -9 -10 -11
-12 -12 -12 -13 -13 -13 -12 -12 -13 -12 -12 -12 -12 -11 -12 -12 -11 -12 -11 -11 -11 -11 -10 -10 -10 -10 -10 -9 -8 -8 -9 -10 -10 -10 -10 -9 -10 -10 -10 -9 -10 -10 -10 -11
-12 -12 -13 -13 -13 -13 -13 -13 -12 -12 -12 -13 -14 -12 -13 -13 -12 -12 -12 -11 -11 -12 -12 -11 -11 -10 -9 -9 -8 -8 -9 -10 -11 -10 -10 -10 -10 -9 -9 -9 -9 -9 -9 -10
-12 -13 -13 -13 -15 -15 -14 -13 -14 -14 -13 -12 -12 -12 -12 -12 -12 -12 -13 -13 -13 -12 -12 -11 -11 -11 -10 -10 -10 -10 -10 -10 -10 -10 -11 -11 -11 -10 -10 -10 -10 -9 -9 -10
-12 -12 -12 -12 -13 -15 -15 -13 -13 -13 -13 -12 -12 -12 -12 -13 -13 -14 -14 -13 -14 -14 -14 -13 -11 -10 -11 -11 -11 -11 -11 -10 -10 -10 -10 -11 -11 -11 -10 -9 -10 -10 -10 -10
-14 -14 -15 -14 -14 -14 -14 -14 -14 -14 -13 -13 -14 -13 -13 -13 -13 -14 -13 -13 -13 -14 -14 -13 -12 -12 -12 -11 -11 -11 -11 -12 -11 -11 -10 -10 -11 -11 -11 -10 -9 -9 -9 -9
-14 -14 -16 -16 -16 -15 -15 -16 -16 -13 -13 -13 -13 -12 -12 -13 -13 -13 -14 -13 -13 -13 -14 -14 -14 -13 -12 -12 -12 -12 -12 -11 -11 -11 -11 -10 -10 -10 -11 -11 -11 -10 -9 -9
-14 -14 -15 -14 -16 -15 -15 -16 -15 -15 -14 -14 -14 -14 -15 -15 -14 -14 -14 -13 -13 -13 -14 -14 -13 -13 -13 -12 -13 -13 -13 -12 -12 -12 -12 -12 -11 -11 -11 -11 -11 -10 -10 -10
-15 -14 -15 -15 -15 -15 -15 -16 -15 -15 -15 -15 -15 -15 -15 -15 -15 -15 -15 -14 -13 -13 -13 -13 -13 -12 -13 -13 -13 -14 -13 -13 -12 -11 -11 -12 -12 -12 -11 -11 -11 -11 -11 -11
-14 -14 -15 -15 -15 -15 -16 -16 -16 -15 -15 -15 -14 -14 -15 -15 -15 -15 -15 -14 -14 -14 -13 -14 -14 -14 -14 -14 -14 -14 -14 -13 -12 -12 -11 -11 -12 -13 -13 -13 -12 -12 -12 -12
-14 -14 -14 -14 -15 -15 -15 -15 -15 -15 -15 -14 -15 -13 -15 -15 -15 -15 -15 -15 -15 -14 -15 -15 -15 -15 -15 -14 -14 -14 -14 -14 -14 -13 -13 -12 -13 -13 -13 -13 -13 -13 -13 -13
-15 -14 -14 -15 -15 -15 -15 -15 -15 -15 -15 -15 -16 -14 -15 -16 -15 -16 -16 -16 -15 -15 -15 -15 -15 -15 -15 -15 -15 -15 -15 -15 -15 -15 -14 -14 -14 -14 -13 -14 -14 -14 -13 -14
-15 -15 -15 -15 -15 -15 -15 -16 -16 -17 -16 -17 -16 -16 -16 -16 -16 -17 -16 -16 -16 -16 -16 -16 -16 -16 -15 -15 -15 -14 -14 -15 -15 -15 -15 -15 -15 -15 -15 -15 -15 -16 -14 -14
-15 -16 -16 -16 -16 -16 -15 -16 -17 -17 -17 -18 -17 -17 -17 -17 -17 -17 -16 -16 -16 -16 -16 -15 -15 -15 -16 -15 -15 -15 -15 -15 -15 -16 -16 -18 -18 -17 -17 -16 -16 -17 -17 -15
-15 -16 -16 -16 -17 -17 -16 -18 -18 -19 -19 -19 -18 -18 -19 -19 -19 -18 -18 -17 -17 -17 -16 -17 -16 -16 -16 -15 -15 -15 -16 -16 -16 -17 -17 -17 -17 -18 -18 -18 -17 -17 -17 -17
-16 -17 -16 -17 -18 -18 -18 -19 -19 -19 -19 -19 -19 -18 -18 -19 -18 -18 -19 -18 -18 -18 -18 -18 -18 -17 -16 -16 -16 -17 -17 -16 -16 -16 -17 -18 -18 -18 -18 -18 -17 -17 -17 -18
-17 -17 -18 -18 -18 -18 -19 -19 -19 -19 -19 -19 -18 -19 -19 -19 -19 -19 -19 -18 -18 -19 -19 -18 -18 -17 -17 -17 -16 -16 -16 -16 -16 -17 -17 -18 -18 -19 -19 -18 -18 -17 -17 -18
-18 -18 -19 -19 -19 -19 -19 -19 -19 -19 -19 -19 -19 -19 -19 -19 -19 -19 -19 -19 -19 -19 -19 -18 -18 -17 -16 -15 -15 -16 -16 -16 -16 -16 -17 -18 -19 -19 -19 -18 -17 -17 -17 -17
-18 -19 -19 -19 -19 -19 -19 -19 -19 -19 -19 -19 -19 -19 -20 -20 -19 -19 -19 -20 -20 -20 -19 -18 -17 -16 -16 -15 -16 -16 -16 -16 -16 -17 -17 -18 -19 -19 -19 -18 -18 -17 -17 -17
-19 -19 -19 -20 -20 -19 -19 -19 -19 -19 -19 -19 -19 -19 -20 -20 -19 -19 -19 -19 -19 -18 -17 -17 -16 -15 -15 -16 -15 -15 -16 -16 -16 -16 -17 -17 -18 -18 -18 -18 -17 -17 -17 -17
-19 -20 -19 -20 -20 -20 -20 -20 -20 -19 -19 -19 -20 -20 -19 -20 -19 -19 -19 -18 -18 -17 -17 -16 -15 -15 -15 -16 -15 -15 -15 -15 -15 -16 -16 -16 -16 -16 -16 -16 -17 -17 -17 -16
-19 -20 -20 -20 -20 -20 -20 -19 -20 -19 -19 -20 -20 -20 -20 -20 -19 -19 -19 -19 -18 -17 -15 -15 -15 -15 -15 -15 -15 -14 -14 -14 -14 -15 -16 -16 -16 -16 -16 -16 -16 -16 -16 -16
-19 -20 -20 -20 -20 -20 -20 -20 -20 -20 -20 -20 -20 -20 -20 -19 -19 -19 -18 -17 -16 -16 -15 -15 -15 -15 -15 -14 -14 -14 -14 -14 -14 -14 -15 -15 -15 -16 -15 -15 -15 -16 -16 -16
-20 -20 -20 -20 -20 -20 -21 -20 -21 -20 -20 -20 -20 -19 -19 -19 -19 -18 -18 -17 -16 -16 -15 -15 -15 -14 -14 -14 -14 -14 -14 -14 -14 -15 -15 -15 -16 -15 -16 -16 -16 -16 -16 -16
-20 -20 -20 -21 -21 -21 -21 -21 -21 -21 -20 -20 -20 -19 -19 -19 -18 -18 -17 -16 -16 -15 -15 -15 -15 -14 -14 -14 -14 -14 -15 -15 -15 -15 -15 -15 -15 -15 -16 -16 -16 -16 -16 -17

GFSCGP_500_temp_114.txt.gz
Temp
-12 -12 -12 -12 -12 -12 -12 -11 -11 -12 -13 -11 -10 -9 -10 -10 -10 -10 -9 -9 -9 -9 -9 -9 -10 -9 -9 -9 -9 -10 -10 -10 -10 -10 -10 -10 -9 -9 -9 -9 -10 -10 -10 -10
-12 -12 -12 -12 -12 -12 -12 -12 -11 -12 -13 -12 -11 -10 -10 -10 -9 -10 -9 -9 -10 -10 -10 -10 -10 -11 -10 -10 -10 -10 -9 -9 -9 -9 -10 -9 -10 -10 -9 -10 -10 -10 -10 -10
-11 -12 -12 -12 -12 -12 -12 -12 -12 -11 -12 -12 -11 -10 -11 -12 -12 -11 -10 -10 -11 -11 -10 -10 -10 -11 -11 -10 -10 -10 -9 -10 -10 -10 -10 -10 -10 -10 -10 -10 -10 -10 -10 -10
-12 -12 -13 -12 -13 -13 -12 -12 -12 -13 -12 -11 -12 -11 -12 -12 -11 -11 -11 -12 -13 -13 -12 -12 -12 -11 -11 -10 -10 -10 -10 -10 -11 -11 -12 -11 -10 -9 -10 -10 -10 -10 -11 -11
-12 -12 -12 -12 -12 -12 -12 -12 -12 -12 -11 -11 -12 -12 -11 -12 -12 -13 -14 -13 -13 -13 -12 -11 -11 -11 -11 -11 -11 -10 -10 -10 -10 -10 -11 -12 -11 -11 -10 -10 -9 -10 -10 -10
-13 -12 -12 -12 -13 -13 -12 -12 -11 -11 -11 -12 -11 -11 -12 -13 -13 -13 -12 -12 -11 -11 -11 -11 -11 -10 -11 -11 -11 -12 -12 -11 -11 -11 -11 -11 -11 -11 -11 -11 -11 -10 -10 -10
-14 -14 -14 -14 -14 -14 -14 -13 -13 -13 -13 -12 -12 -12 -12 -13 -12 -12 -12 -12 -12 -12 -12 -13 -13 -13 -13 -13 -12 -12 -12 -12 -12 -12 -12 -11 -11 -10 -11 -11 -11 -11 -11 -11
-14 -14 -15 -14 -15 -15 -15 -15 -15 -14 -13 -13 -14 -13 -13 -14 -14 -14 -14 -13 -13 -14 -13 -13 -13 -14 -14 -13 -13 -12 -11 -12 -12 -13 -13 -13 -12 -12 -11 -10 -11 -11 -11 -11
-13 -14 -14 -14 -15 -15 -15 -16 -15 -15 -15 -14 -14 -14 -16 -15 -15 -15 -15 -14 -14 -14 -14 -14 -13 -14 -13 -13 -13 -13 -13 -13 -13 -14 -13 -13 -13 -13 -13 -12 -11 -10 -10 -11
-14 -14 -14 -14 -15 -15 -15 -15 -16 -16 -15 -14 -14 -14 -14 -14 -15 -15 -15 -15 -15 -14 -14 -14 -14 -13 -13 -14 -14 -14 -14 -14 -14 -14 -13 -13 -13 -13 -13 -13 -13 -12 -11 -10
-14 -14 -15 -14 -15 -15 -15 -15 -15 -15 -15 -14 -13 -13 -14 -15 -16 -16 -15 -15 -14 -15 -14 -14 -14 -14 -14 -14 -14 -14 -14 -14 -14 -14 -13 -12 -13 -12 -12 -12 -12 -12 -12 -12
-14 -14 -14 -15 -15 -14 -15 -15 -15 -15 -15 -15 -15 -13 -15 -15 -16 -15 -15 -15 -14 -15 -15 -15 -14 -15 -14 -14 -15 -15 -15 -14 -14 -13 -13 -13 -13 -12 -11 -12 -12 -13 -13 -12
-14 -14 -14 -14 -15 -15 -15 -15 -15 -15 -15 -15 -15 -13 -14 -16 -16 -16 -16 -16 -16 -15 -15 -15 -15 -15 -15 -15 -15 -15 -15 -15 -14 -14 -14 -14 -14 -14 -14 -13 -14 -14 -14 -14
-15 -15 -15 -15 -15 -15 -15 -16 -16 -16 -15 -15 -14 -14 -15 -18 -17 -16 -16 -16 -16 -16 -16 -16 -16 -16 -16 -16 -16 -15 -15 -14 -14 -14 -14 -14 -14 -14 -14 -14 -14 -15 -15 -15
-15 -16 -15 -15 -16 -15 -15 -16 -17 -17 -16 -15 -15 -16 -17 -17 -18 -18 -17 -17 -17 -17 -17 -17 -17 -17 -17 -16 -16 -15 -15 -14 -15 -15 -15 -15 -15 -15 -15 -15 -15 -16 -16 -16
-16 -16 -16 -16 -16 -16 -16 -17 -17 -17 -17 -16 -17 -17 -17 -18 -18 -18 -18 -18 -18 -18 -17 -17 -16 -16 -17 -17 -16 -16 -16 -16 -16 -15 -15 -15 -15 -15 -15 -15 -15 -15 -17 -17
-16 -16 -16 -16 -17 -17 -17 -18 -18 -19 -19 -19 -18 -18 -19 -19 -19 -19 -18 -19 -19 -19 -18 -17 -17 -18 -18 -17 -17 -16 -15 -16 -15 -15 -15 -15 -15 -16 -16 -16 -17 -17 -17 -18
-16 -17 -16 -17 -17 -18 -18 -18 -19 -19 -19 -19 -19 -19 -19 -19 -19 -19 -19 -19 -19 -19 -18 -18 -18 -18 -18 -18 -17 -16 -16 -15 -15 -15 -15 -15 -15 -15 -16 -16 -17 -18 -18 -19
-16 -16 -17 -17 -18 -18 -19 -19 -19 -19 -19 -19 -19 -19 -19 -19 -19 -19 -19 -19 -18 -18 -18 -18 -18 -18 -17 -17 -16 -15 -15 -14 -15 -15 -15 -15 -15 -16 -16 -16 -17 -18 -19 -20
-17 -17 -18 -19 -19 -18 -18 -19 -20 -20 -19 -19 -19 -19 -19 -19 -19 -19 -19 -19 -19 -19 -19 -19 -18 -18 -17 -17 -15 -14 -15 -15 -15 -15 -15 -15 -15 -15 -16 -16 -16 -17 -18 -19
-17 -17 -18 -19 -19 -19 -19 -20 -20 -20 -19 -19 -19 -20 -19 -19 -19 -19 -20 -20 -19 -19 -19 -19 -18 -17 -17 -16 -15 -15 -15 -15 -15 -14 -14 -14 -14 -14 -15 -16 -16 -16 -17 -17
-18 -18 -19 -19 -20 -20 -20 -19 -19 -20 -20 -20 -20 -19 -19 -20 -20 -19 -19 -19 -19 -19 -19 -18 -17 -17 -16 -16 -15 -15 -14 -14 -14 -14 -14 -14 -14 -14 -15 -15 -16 -16 -16 -16
-18 -18 -19 -20 -20 -20 -20 -20 -19 -19 -19 -19 -19 -19 -20 -19 -19 -19 -19 -19 -19 -18 -18 -17 -17 -16 -16 -15 -15 -14 -14 -14 -14 -15 -15 -14 -14 -14 -15 -15 -16 -16 -16 -16
-18 -19 -19 -20 -20 -20 -20 -20 -20 -20 -20 -19 -19 -20 -20 -19 -19 -19 -19 -18 -18 -18 -17 -16 -16 -16 -15 -15 -14 -14 -14 -14 -14 -14 -15 -15 -15 -15 -15 -15 -15 -16 -16 -16
-19 -19 -20 -20 -20 -20 -20 -20 -20 -20 -20 -19 -20 -20 -19 -19 -18 -18 -18 -18 -17 -17 -16 -16 -15 -15 -14 -14 -14 -14 -14 -14 -14 -15 -15 -15 -15 -15 -15 -16 -16 -16 -16 -16
-19 -19 -19 -20 -20 -20 -20 -20 -20 -20 -20 -20 -20 -20 -19 -18 -18 -18 -17 -17 -17 -16 -16 -15 -15 -14 -14 -14 -14 -13 -13 -14 -14 -14 -15 -15 -14 -16 -17 -17 -16 -16 -16 -16

GFSCGP_500_temp_117.txt.gz
Temp
-12 -12 -12 -12 -12 -12 -12 -12 -11 -12 -12 -11 -10 -9 -9 -9 -9 -8 -9 -9 -9 -9 -10 -9 -10 -10 -10 -10 -9 -9 -9 -9 -9 -9 -9 -10 -10 -10 -10 -10 -10 -11 -11 -11
-12 -12 -13 -12 -12 -12 -12 -12 -11 -12 -12 -11 -11 -10 -10 -10 -10 -10 -9 -9 -9 -9 -10 -10 -9 -9 -10 -10 -10 -10 -10 -10 -9 -10 -10 -11 -11 -11 -11 -11 -11 -11 -11 -11
-12 -12 -12 -12 -12 -12 -12 -12 -12 -11 -13 -12 -11 -10 -10 -11 -10 -10 -10 -9 -9 -10 -10 -10 -10 -9 -9 -9 -10 -10 -10 -10 -10 -10 -10 -11 -11 -11 -11 -11 -11 -11 -11 -11
-12 -12 -12 -12 -12 -12 -11 -11 -11 -12 -11 -11 -12 -10 -11 -11 -11 -11 -10 -10 -10 -10 -10 -10 -10 -9 -9 -9 -9 -9 -9 -10 -10 -11 -11 -11 -11 -11 -11 -11 -11 -11 -11 -11
-13 -12 -12 -12 -12 -11 -11 -12 -11 -11 -11 -11 -11 -11 -10 -11 -12 -12 -12 -11 -11 -10 -10 -11 -11 -11 -10 -10 -10 -10 -10 -10 -10 -11 -11 -11 -11 -12 -13 -12 -12 -11 -11 -11
-13 -12 -13 -13 -13 -12 -12 -12 -12 -12 -12 -11 -12 -12 -11 -12 -12 -12 -13 -12 -12 -11 -11 -11 -11 -11 -11 -11 -11 -11 -10 -11 -11 -11 -12 -12 -12 -12 -13 -13 -13 -12 -12 -11
-13 -13 -14 -14 -14 -13 -13 -13 -13 -13 -12 -12 -12 -12 -12 -12 -13 -13 -13 -13 -12 -12 -12 -12 -12 -12 -12 -12 -12 -12 -12 -12 -12 -12 -12 -12 -12 -12 -13 -13 -12 -12 -12 -12
-13 -14 -14 -13 -13 -14 -14 -14 -14 -13 -13 -13 -13 -13 -13 -13 -13 -13 -13 -12 -13 -13 -12 -12 -12 -13 -13 -14 -14 -13 -13 -14 -13 -13 -13 -13 -13 -13 -13 -12 -12 -12 -12 -11
-15 -15 -14 -14 -14 -14 -15 -15 -15 -14 -14 -14 -14 -14 -14 -14 -14 -14 -13 -14 -13 -14 -14 -14 -13 -13 -13 -14 -14 -14 -14 -14 -14 -13 -14 -14 -14 -14 -14 -13 -13 -13 -12 -12
-15 -15 -15 -15 -15 -15 -16 -16 -16 -16 -15 -15 -14 -14 -14 -14 -15 -15 -14 -14 -14 -14 -14 -14 -14 -14 -15 -15 -14 -14 -13 -14 -13 -13 -14 -14 -14 -14 -14 -14 -14 -14 -13 -13
-15 -15 -15 -15 -15 -14 -15 -15 -15 -15 -15 -15 -14 -14 -14 -14 -14 -15 -15 -15 -16 -14 -15 -15 -14 -14 -14 -14 -15 -15 -15 -15 -14 -14 -14 -14 -14 -14 -14 -13 -13 -14 -15 -14
-14 -14 -15 -16 -15 -15 -15 -15 -15 -15 -15 -15 -15 -14 -14 -14 -14 -14 -15 -15 -15 -15 -14 -15 -15 -15 -15 -15 -15 -15 -14 -14 -14 -15 -15 -15 -14 -14 -14 -14 -14 -14 -13 -13
-15 -14 -14 -15 -15 -15 -15 -15 -15 -15 -15 -14 -15 -14 -15 -15 -15 -15 -14 -15 -15 -15 -15 -15 -15 -15 -15 -15 -16 -15 -15 -15 -15 -15 -15 -15 -15 -15 -14 -14 -14 -13 -13 -14
-15 -15 -15 -15 -15 -15 -15 -15 -15 -15 -15 -15 -14 -14 -15 -15 -15 -14 -14 -15 -16 -16 -16 -16 -17 -16 -15 -15 -16 -16 -16 -16 -16 -15 -15 -14 -15 -14 -14 -14 -14 -14 -14 -14
-15 -15 -15 -15 -15 -15 -15 -15 -16 -15 -15 -15 -15 -14 -15 -15 -15 -16 -16 -17 -17 -18 -18 -18 -17 -17 -17 -16 -16 -16 -16 -17 -16 -16 -15 -15 -15 -14 -14 -14 -14 -15 -15 -15
-16 -16 -16 -16 -15 -15 -15 -15 -15 -16 -16 -15 -16 -15 -16 -16 -17 -17 -18 -18 -18 -18 -18 -18 -17 -17 -18 -18 -17 -17 -17 -17 -16 -16 -15 -16 -16 -16 -15 -15 -15 -15 -15 -15
-15 -16 -15 -16 -16 -16 -16 -16 -16 -16 -17 -17 -17 -17 -17 -17 -18 -18 -18 -18 -18 -18 -18 -18 -18 -18 -18 -18 -18 -17 -17 -17 -16 -17 -16 -16 -16 -15 -15 -15 -15 -15 -15 -15
-16 -15 -15 -15 -16 -15 -16 -16 -18 -18 -18 -19 -18 -19 -19 -19 -19 -18 -18 -18 -18 -18 -18 -19 -18 -18 -18 -18 -18 -18 -17 -17 -17 -16 -16 -15 -15 -15 -15 -15 -15 -15 -15 -15
-16 -16 -16 -16 -16 -16 -17 -18 -19 -19 -19 -19 -19 -19 -19 -19 -19 -19 -19 -19 -18 -18 -18 -18 -18 -18 -18 -18 -18 -17 -17 -16 -16 -15 -15 -14 -14 -14 -15 -15 -14 -14 -14 -15
-16 -16 -16 -16 -16 -16 -17 -19 -19 -20 -19 -20 -19 -19 -19 -19 -19 -20 -19 -19 -18 -18 -18 -18 -18 -18 -18 -18 -18 -17 -16 -15 -15 -14 -14 -14 -15 -15 -14 -14 -14 -13 -14 -14
-17 -17 -16 -17 -17 -16 -17 -18 -19 -20 -19 -19 -19 -19 -19 -19 -19 -19 -19 -19 -19 -19 -19 -19 -19 -18 -19 -18 -17 -16 -15 -15 -15 -15 -15 -14 -15 -15 -15 -14 -14 -13 -14 -15
-17 -17 -17 -17 -17 -17 -18 -19 -20 -20 -20 -19 -20 -20 -20 -20 -19 -19 -19 -19 -19 -19 -19 -19 -18 -18 -18 -17 -16 -15 -15 -15 -14 -14 -14 -15 -15 -15 -15 -15 -14 -15 -15 -15
-17 -17 -17 -17 -17 -18 -19 -19 -20 -20 -20 -20 -19 -20 -19 -19 -19 -19 -19 -19 -18 -18 -18 -18 -18 -17 -17 -16 -15 -15 -15 -14 -14 -14 -14 -15 -15 -14 -15 -15 -15 -15 -15 -15
-17 -17 -17 -17 -19 -19 -20 -20 -20 -20 -20 -20 -20 -20 -19 -19 -19 -19 -19 -18 -18 -18 -18 -17 -17 -16 -16 -15 -15 -14 -14 -14 -14 -14 -14 -15 -15 -15 -15 -15 -16 -16 -16 -16
-17 -17 -18 -18 -19 -19 -20 -20 -20 -20 -20 -20 -20 -19 -19 -18 -18 -19 -18 -17 -18 -18 -17 -16 -16 -16 -15 -15 -14 -14 -14 -14 -14 -14 -14 -14 -15 -15 -15 -16 -16 -17 -17 -17
-18 -18 -18 -19 -19 -19 -20 -20 -20 -20 -20 -20 -20 -19 -18 -18 -18 -18 -18 -18 -17 -17 -16 -16 -16 -15 -14 -14 -14 -14 -14 -14 -14 -14 -14 -14 -15 -16 -16 -16 -16 -16 -18 -17

GFSCGP_500_temp_123.txt.gz
Temp
-13 -13 -12 -13 -13 -13 -12 -12 -11 -11 -11 -10 -10 -9 -9 -9 -9 -9 -9 -9 -9 -9 -9 -9 -9 -8 -9 -8 -9 -9 -9 -9 -10 -9 -9 -10 -10 -10 -10 -10 -10 -10 -10 -10
-13 -14 -14 -13 -13 -13 -12 -12 -12 -11 -11 -11 -10 -10 -10 -9 -9 -9 -10 -9 -9 -9 -9 -9 -10 -10 -10 -10 -10 -10 -10 -10 -10 -10 -10 -10 -10 -10 -10 -10 -10 -10 -10 -10
-14 -14 -14 -13 -13 -13 -12 -12 -12 -12 -11 -10 -10 -10 -10 -11 -10 -10 -10 -10 -10 -10 -9 -9 -10 -10 -10 -11 -11 -11 -11 -11 -11 -11 -11 -11 -11 -11 -11 -11 -11 -11 -11 -11
-14 -13 -13 -13 -13 -13 -12 -12 -12 -12 -12 -11 -11 -10 -10 -10 -11 -11 -10 -10 -10 -10 -10 -10 -10 -10 -11 -11 -11 -11 -11 -11 -11 -11 -11 -11 -11 -11 -12 -11 -11 -11 -12 -12
-13 -13 -13 -13 -13 -13 -12 -12 -12 -12 -12 -11 -11 -11 -10 -11 -11 -11 -11 -11 -11 -11 -11 -11 -10 -10 -10 -11 -11 -11 -11 -11 -12 -12 -11 -12 -12 -12 -13 -13 -12 -12 -12 -12
-14 -13 -13 -13 -13 -13 -13 -13 -12 -12 -12 -12 -12 -12 -11 -11 -12 -11 -11 -11 -11 -11 -10 -10 -10 -10 -10 -11 -11 -11 -12 -12 -12 -12 -12 -12 -13 -13 -13 -12 -12 -13 -12 -12
-13 -13 -13 -13 -13 -13 -12 -12 -12 -12 -12 -12 -12 -12 -12 -11 -11 -12 -12 -11 -11 -11 -11 -11 -10 -10 -10 -10 -11 -11 -12 -12 -12 -12 -12 -12 -12 -13 -13 -13 -13 -13 -14 -14
-14 -14 -14 -14 -14 -14 -14 -13 -13 -13 -12 -12 -12 -11 -11 -12 -12 -12 -12 -12 -11 -11 -11 -11 -11 -11 -11 -11 -11 -11 -11 -11 -12 -12 -12 -13 -13 -13 -14 -14 -14 -14 -13 -13
-14 -13 -14 -14 -14 -14 -14 -13 -13 -13 -12 -12 -12 -12 -12 -12 -12 -12 -12 -12 -12 -11 -11 -12 -12 -12 -12 -12 -12 -13 -13 -13 -13 -13 -13 -13 -14 -14 -14 -14 -14 -14 -14 -13
-14 -14 -14 -14 -14 -14 -14 -14 -14 -14 -13 -13 -12 -12 -12 -13 -13 -13 -13 -13 -12 -12 -12 -12 -12 -13 -13 -13 -13 -13 -13 -13 -14 -14 -15 -15 -15 -15 -15 -15 -15 -14 -14 -14
-15 -15 -15 -15 -15 -15 -14 -14 -14 -14 -14 -14 -13 -13 -13 -14 -14 -14 -13 -14 -14 -14 -13 -13 -13 -13 -13 -13 -13 -13 -13 -14 -14 -14 -14 -15 -15 -15 -15 -15 -15 -15 -15 -15
-15 -15 -15 -15 -15 -15 -15 -15 -15 -14 -14 -14 -14 -13 -14 -14 -14 -14 -13 -13 -13 -13 -13 -13 -13 -13 -13 -13 -13 -13 -13 -14 -14 -14 -14 -14 -14 -15 -15 -15 -15 -15 -14 -15
-15 -15 -15 -15 -14 -14 -14 -14 -14 -14 -14 -14 -14 -14 -14 -15 -15 -14 -14 -14 -14 -14 -13 -13 -13 -14 -14 -13 -13 -14 -14 -14 -14 -14 -14 -15 -15 -15 -15 -15 -15 -15 -15 -15
-15 -15 -15 -14 -14 -14 -14 -14 -14 -14 -14 -14 -14 -15 -15 -15 -14 -14 -14 -14 -14 -14 -14 -14 -14 -14 -13 -13 -13 -13 -14 -14 -14 -14 -15 -15 -15 -15 -15 -15 -15 -15 -16 -16
-15 -15 -15 -15 -15 -15 -15 -15 -15 -15 -15 -14 -15 -15 -15 -15 -15 -15 -14 -14 -14 -14 -14 -14 -13 -14 -14 -14 -14 -15 -15 -15 -15 -15 -16 -16 -16 -17 -17 -17 -17 -17 -17 -17
-15 -15 -15 -15 -15 -15 -15 -15 -15 -15 -15 -15 -15 -15 -15 -15 -15 -15 -15 -15 -15 -15 -15 -15 -15 -16 -16 -17 -17 -17 -17 -17 -17 -18 -18 -18 -18 -18 -18 -18 -18 -18 -18 -18
-15 -15 -15 -15 -15 -15 -15 -15 -15 -15 -15 -15 -15 -15 -15 -15 -15 -15 -16 -16 -16 -17 -18 -18 -18 -18 -18 -18 -18 -18 -18 -18 -18 -18 -18 -17 -17 -17 -17 -17 -17 -17 -17 -16
-16 -16 -15 -16 -16 -16 -16 -15 -16 -15 -16 -16 -16 -16 -16 -16 -16 -17 -17 -17 -18 -18 -19 -18 -18 -18 -18 -18 -18 -18 -18 -18 -17 -17 -17 -17 -17 -17 -17 -17 -16 -16 -16 -16
-16 -16 -16 -16 -16 -16 -16 -16 -16 -16 -16 -16 -16 -16 -16 -16 -17 -18 -18 -18 -19 -19 -19 -19 -18 -18 -18 -18 -18 -18 -18 -18 -17 -17 -17 -16 -16 -16 -15 -15 -15 -15 -15 -15
-16 -16 -16 -16 -16 -16 -16 -16 -16 -16 -16 -17 -17 -17 -17 -17 -17 -19 -19 -19 -19 -19 -19 -18 -18 -18 -18 -18 -18 -17 -17 -17 -17 -16 -16 -16 -16 -15 -15 -15 -14 -14 -14 -14
-16 -16 -16 -16 -16 -16 -16 -16 -16 -16 -16 -16 -17 -17 -17 -17 -18 -19 -19 -19 -19 -19 -19 -18 -18 -18 -18 -18 -17 -17 -16 -16 -16 -15 -15 -15 -15 -15 -15 -14 -14 -14 -14 -15
-17 -16 -17 -16 -16 -16 -16 -16 -16 -16 -17 -17 -17 -17 -18 -19 -19 -19 -19 -19 -19 -19 -18 -18 -17 -17 -18 -17 -16 -16 -16 -15 -15 -15 -14 -14 -14 -14 -14 -14 -15 -15 -15 -15
-17 -17 -17 -17 -17 -16 -16 -16 -16 -16 -17 -17 -18 -19 -19 -19 -19 -19 -19 -19 -19 -18 -18 -17 -17 -17 -17 -16 -16 -15 -15 -15 -14 -14 -14 -14 -14 -14 -14 -15 -15 -15 -15 -16
-17 -17 -17 -17 -17 -17 -17 -16 -16 -17 -17 -18 -19 -19 -19 -19 -19 -18 -18 -18 -18 -18 -17 -17 -17 -16 -16 -16 -16 -15 -15 -14 -14 -14 -14 -14 -14 -14 -15 -15 -15 -15 -16 -16
-18 -17 -17 -17 -17 -17 -16 -16 -16 -17 -18 -18 -18 -18 -19 -18 -18 -18 -18 -18 -17 -17 -17 -16 -16 -16 -16 -16 -15 -14 -14 -14 -14 -14 -14 -14 -14 -15 -15 -15 -15 -16 -16 -16
-18 -18 -17 -17 -17 -17 -16 -16 -17 -18 -18 -18 -18 -18 -18 -18 -18 -18 -17 -17 -17 -17 -16 -16 -16 -16 -16 -15 -15 -15 -14 -14 -14 -14 -14 -14 -14 -15 -15 -15 -15 -16 -17 -17